Time,TemperatureF,DewpointF,PressureIn,WindDirection,WindDirectionDegrees,WindSpeedMPH,WindSpeedGustMPH,Humidity,HourlyPrecipIn,Conditions,Clouds,dailyrainin,SolarRadiationWatts/m^2,SoftwareType,DateUTC
2013-06-05 00:00:00,62.5,61.6,29.93,ENE,59,2.0,2.0,97,0.07,,,0.00,0,Wunderground v.1.15,2013-06-05 05:00:00,
2013-06-05 00:03:00,62.5,61.6,29.93,East,94,0.0,3.0,97,0.05,,,0.00,0,Wunderground v.1.15,2013-06-05 05:03:00,
2013-06-05 00:04:00,62.4,61.5,29.93,ENE,76,4.0,4.0,97,0.05,,,0.00,0,Wunderground v.1.15,2013-06-05 05:04:00,
2013-06-05 00:06:00,62.4,61.5,29.92,East,97,5.0,5.0,97,0.04,,,0.01,0,Wunderground v.1.15,2013-06-05 05:06:00,
2013-06-05 00:09:00,62.4,61.5,29.92,ESE,102,5.0,6.0,97,0.04,,,0.01,0,Wunderground v.1.15,2013-06-05 05:09:00,
2013-06-05 00:13:00,62.3,61.4,29.92,ENE,77,4.0,6.0,97,0.04,,,0.01,0,Wunderground v.1.15,2013-06-05 05:13:00,
2013-06-05 00:14:00,62.3,61.4,29.92,East,92,6.0,6.0,97,0.04,,,0.01,0,Wunderground v.1.15,2013-06-05 05:14:00,
2013-06-05 00:15:00,62.3,61.4,29.92,East,95,3.0,6.0,97,0.04,,,0.01,0,Wunderground v.1.15,2013-06-05 05:15:00,
2013-06-05 00:17:00,62.3,61.4,29.92,East,90,5.0,6.0,97,0.04,,,0.01,0,Wunderground v.1.15,2013-06-05 05:17:00,
2013-06-05 00:18:00,62.2,61.3,29.92,East,91,2.0,6.0,97,0.04,,,0.01,0,Wunderground v.1.15,2013-06-05 05:18:00,
2013-06-05 00:19:00,62.3,61.4,29.92,East,96,1.0,6.0,97,0.04,,,0.01,0,Wunderground v.1.15,2013-06-05 05:19:00,
2013-06-05 00:21:00,62.2,61.3,29.92,East,92,3.0,3.0,97,0.04,,,0.01,0,Wunderground v.1.15,2013-06-05 05:21:00,
2013-06-05 00:22:00,62.2,61.3,29.93,ENE,71,3.0,3.0,97,0.04,,,0.01,0,Wunderground v.1.15,2013-06-05 05:22:00,
2013-06-05 00:23:00,62.2,61.3,29.93,East,82,3.0,3.0,97,0.00,,,0.01,0,Wunderground v.1.15,2013-06-05 05:23:00,
2013-06-05 00:26:00,62.2,61.3,29.93,East,96,3.0,3.0,97,0.00,,,0.01,0,Wunderground v.1.15,2013-06-05 05:26:00,
2013-06-05 00:27:00,62.2,61.3,29.93,ESE,107,4.0,4.0,97,0.00,,,0.01,0,Wunderground v.1.15,2013-06-05 05:27:00,
2013-06-05 00:28:00,62.1,61.2,29.93,ESE,107,2.0,4.0,97,0.00,,,0.01,0,Wunderground v.1.15,2013-06-05 05:28:00,
2013-06-05 00:31:00,62.1,61.2,29.93,East,96,2.0,3.0,97,0.00,,,0.01,0,Wunderground v.1.15,2013-06-05 05:31:00,
2013-06-05 00:33:00,62.1,61.2,29.93,ENE,61,2.0,3.0,97,0.00,,,0.02,0,Wunderground v.1.15,2013-06-05 05:33:00,
2013-06-05 00:34:00,62.1,61.2,29.92,ENE,64,2.0,3.0,97,0.00,,,0.02,0,Wunderground v.1.15,2013-06-05 05:34:00,
2013-06-05 00:36:00,62.1,61.2,29.93,East,80,2.0,3.0,97,0.00,,,0.02,0,Wunderground v.1.15,2013-06-05 05:36:00,
2013-06-05 00:39:00,62.0,61.1,29.93,East,94,0.0,3.0,97,0.00,,,0.02,0,Wunderground v.1.15,2013-06-05 05:39:00,
2013-06-05 00:41:00,62.0,61.1,29.93,East,86,3.0,3.0,97,0.00,,,0.02,0,Wunderground v.1.15,2013-06-05 05:41:00,
2013-06-05 00:42:00,62.0,61.1,29.93,East,87,3.0,3.0,97,0.00,,,0.02,0,Wunderground v.1.15,2013-06-05 05:42:00,
2013-06-05 00:44:00,62.0,61.1,29.93,East,92,3.0,3.0,97,0.00,,,0.02,0,Wunderground v.1.15,2013-06-05 05:44:00,
2013-06-05 00:45:00,62.0,61.1,29.93,East,83,5.0,5.0,97,0.00,,,0.02,0,Wunderground v.1.15,2013-06-05 05:45:00,
2013-06-05 00:48:00,62.0,61.1,29.93,East,85,5.0,5.0,97,0.00,,,0.02,0,Wunderground v.1.15,2013-06-05 05:48:00,
2013-06-05 00:51:00,62.0,61.1,29.93,East,89,3.0,7.0,97,0.04,,,0.03,0,Wunderground v.1.15,2013-06-05 05:51:00,
2013-06-05 00:52:00,62.0,61.1,29.93,East,88,2.0,7.0,97,0.04,,,0.03,0,Wunderground v.1.15,2013-06-05 05:52:00,
2013-06-05 00:55:00,62.0,61.1,29.93,East,95,3.0,7.0,97,0.04,,,0.03,0,Wunderground v.1.15,2013-06-05 05:55:00,
2013-06-05 00:56:00,62.0,61.1,29.93,East,98,3.0,7.0,97,0.04,,,0.03,0,Wunderground v.1.15,2013-06-05 05:56:00,
2013-06-05 00:57:00,61.9,61.0,29.93,East,98,3.0,7.0,97,0.04,,,0.03,0,Wunderground v.1.15,2013-06-05 05:57:00,
2013-06-05 00:58:00,61.9,61.0,29.93,East,96,3.0,7.0,97,0.04,,,0.03,0,Wunderground v.1.15,2013-06-05 05:58:00,
2013-06-05 01:02:00,61.9,61.0,29.93,East,87,5.0,7.0,97,0.04,,,0.03,0,Wunderground v.1.15,2013-06-05 06:02:00,
2013-06-05 01:03:00,61.9,61.0,29.93,East,92,5.0,7.0,97,0.04,,,0.03,0,Wunderground v.1.15,2013-06-05 06:03:00,
2013-06-05 01:04:00,61.9,61.0,29.93,East,79,3.0,7.0,97,0.04,,,0.03,0,Wunderground v.1.15,2013-06-05 06:04:00,
2013-06-05 01:05:00,61.9,61.0,29.93,East,86,3.0,7.0,97,0.04,,,0.03,0,Wunderground v.1.15,2013-06-05 06:05:00,
2013-06-05 01:07:00,61.9,61.0,29.92,East,91,3.0,7.0,97,0.00,,,0.03,0,Wunderground v.1.15,2013-06-05 06:07:00,
2013-06-05 01:10:00,61.8,60.9,29.92,East,86,3.0,4.0,97,0.00,,,0.03,0,Wunderground v.1.15,2013-06-05 06:10:00,
2013-06-05 01:13:00,61.8,60.9,29.92,ESE,113,4.0,4.0,97,0.00,,,0.03,0,Wunderground v.1.15,2013-06-05 06:13:00,
2013-06-05 01:15:00,61.7,60.8,29.92,East,89,2.0,5.0,97,0.00,,,0.03,0,Wunderground v.1.15,2013-06-05 06:15:00,
2013-06-05 01:18:00,61.7,60.8,29.92,East,92,2.0,5.0,97,0.00,,,0.03,0,Wunderground v.1.15,2013-06-05 06:18:00,
2013-06-05 01:19:00,61.6,60.7,29.92,East,93,1.0,5.0,97,0.00,,,0.03,0,Wunderground v.1.15,2013-06-05 06:19:00,
2013-06-05 01:25:00,61.6,60.7,29.92,East,88,5.0,5.0,97,0.00,,,0.03,0,Wunderground v.1.15,2013-06-05 06:25:00,
2013-06-05 01:27:00,61.6,60.7,29.91,East,86,6.0,6.0,97,0.00,,,0.03,0,Wunderground v.1.15,2013-06-05 06:27:00,
2013-06-05 01:28:00,61.6,60.7,29.91,East,84,3.0,6.0,97,0.00,,,0.03,0,Wunderground v.1.15,2013-06-05 06:28:00,
2013-06-05 01:29:00,61.6,60.7,29.91,East,86,3.0,6.0,97,0.00,,,0.03,0,Wunderground v.1.15,2013-06-05 06:29:00,
2013-06-05 01:31:00,61.6,60.7,29.91,East,82,2.0,5.0,97,0.00,,,0.03,0,Wunderground v.1.15,2013-06-05 06:31:00,
2013-06-05 01:34:00,61.6,60.7,29.91,East,83,3.0,6.0,97,0.00,,,0.03,0,Wunderground v.1.15,2013-06-05 06:34:00,
2013-06-05 01:36:00,61.6,60.7,29.91,East,92,3.0,6.0,97,0.00,,,0.03,0,Wunderground v.1.15,2013-06-05 06:36:00,
2013-06-05 01:37:00,61.6,60.7,29.91,East,91,3.0,6.0,97,0.00,,,0.03,0,Wunderground v.1.15,2013-06-05 06:37:00,
2013-06-05 01:38:00,61.6,60.7,29.90,ENE,71,4.0,6.0,97,0.00,,,0.03,0,Wunderground v.1.15,2013-06-05 06:38:00,
2013-06-05 01:40:00,61.6,60.7,29.90,ENE,76,1.0,3.0,97,0.00,,,0.04,0,Wunderground v.1.15,2013-06-05 06:40:00,
2013-06-05 01:44:00,61.6,60.7,29.90,East,84,3.0,5.0,97,0.00,,,0.04,0,Wunderground v.1.15,2013-06-05 06:44:00,
2013-06-05 01:45:00,61.6,60.7,29.90,East,84,2.0,5.0,97,0.00,,,0.04,0,Wunderground v.1.15,2013-06-05 06:45:00,
2013-06-05 01:46:00,61.6,60.7,29.90,ENE,68,2.0,5.0,97,0.00,,,0.04,0,Wunderground v.1.15,2013-06-05 06:46:00,
2013-06-05 01:49:00,61.6,61.0,29.90,East,96,3.0,5.0,98,0.00,,,0.04,0,Wunderground v.1.15,2013-06-05 06:49:00,
2013-06-05 01:51:00,61.6,61.0,29.90,ENE,60,3.0,3.0,98,0.00,,,0.04,0,Wunderground v.1.15,2013-06-05 06:51:00,
2013-06-05 01:52:00,61.6,61.0,29.90,ENE,64,2.0,3.0,98,0.00,,,0.04,0,Wunderground v.1.15,2013-06-05 06:52:00,
2013-06-05 01:54:00,61.6,61.0,29.90,ENE,75,3.0,3.0,98,0.00,,,0.04,0,Wunderground v.1.15,2013-06-05 06:54:00,
2013-06-05 01:57:00,61.6,61.0,29.90,ENE,71,3.0,3.0,98,0.00,,,0.04,0,Wunderground v.1.15,2013-06-05 06:57:00,
2013-06-05 01:58:00,61.6,61.0,29.90,East,87,3.0,3.0,98,0.00,,,0.04,0,Wunderground v.1.15,2013-06-05 06:58:00,
2013-06-05 01:59:00,61.6,61.0,29.90,East,88,2.0,3.0,98,0.00,,,0.04,0,Wunderground v.1.15,2013-06-05 06:59:00,
2013-06-05 02:00:00,61.6,61.0,29.90,ENE,67,2.0,2.0,98,0.00,,,0.04,0,Wunderground v.1.15,2013-06-05 07:00:00,
2013-06-05 02:01:00,61.6,61.0,29.90,ENE,76,4.0,4.0,98,0.00,,,0.04,0,Wunderground v.1.15,2013-06-05 07:01:00,
2013-06-05 02:03:00,61.6,61.0,29.90,ENE,76,0.0,4.0,98,0.00,,,0.04,0,Wunderground v.1.15,2013-06-05 07:03:00,
2013-06-05 02:05:00,61.6,61.0,29.90,ENE,76,1.0,4.0,98,0.00,,,0.04,0,Wunderground v.1.15,2013-06-05 07:05:00,
2013-06-05 02:06:00,61.6,61.0,29.90,ENE,76,2.0,4.0,98,0.00,,,0.04,0,Wunderground v.1.15,2013-06-05 07:06:00,
2013-06-05 02:08:00,61.6,61.0,29.90,ENE,76,2.0,4.0,98,0.00,,,0.04,0,Wunderground v.1.15,2013-06-05 07:08:00,
2013-06-05 02:10:00,61.6,61.0,29.90,ENE,77,2.0,3.0,98,0.00,,,0.04,0,Wunderground v.1.15,2013-06-05 07:10:00,
2013-06-05 02:12:00,61.6,61.0,29.90,East,83,2.0,5.0,98,0.00,,,0.04,0,Wunderground v.1.15,2013-06-05 07:12:00,
2013-06-05 02:13:00,61.6,61.0,29.90,East,84,3.0,5.0,98,0.00,,,0.04,0,Wunderground v.1.15,2013-06-05 07:13:00,
2013-06-05 02:14:00,61.6,61.0,29.90,East,84,3.0,5.0,98,0.00,,,0.04,0,Wunderground v.1.15,2013-06-05 07:14:00,
2013-06-05 02:17:00,61.6,61.0,29.90,East,88,0.0,5.0,98,0.00,,,0.04,0,Wunderground v.1.15,2013-06-05 07:17:00,
2013-06-05 02:18:00,61.6,61.0,29.90,East,88,1.0,5.0,98,0.00,,,0.04,0,Wunderground v.1.15,2013-06-05 07:18:00,
2013-06-05 02:19:00,61.6,61.0,29.90,ENE,66,0.0,5.0,98,0.00,,,0.04,0,Wunderground v.1.15,2013-06-05 07:19:00,
2013-06-05 02:20:00,61.6,61.0,29.90,ENE,66,0.0,2.0,98,0.00,,,0.04,0,Wunderground v.1.15,2013-06-05 07:20:00,
2013-06-05 02:23:00,61.6,61.0,29.90,East,81,2.0,5.0,98,0.00,,,0.04,0,Wunderground v.1.15,2013-06-05 07:23:00,
2013-06-05 02:25:00,61.6,61.0,29.90,East,81,3.0,5.0,98,0.00,,,0.04,0,Wunderground v.1.15,2013-06-05 07:25:00,
2013-06-05 02:27:00,61.6,61.0,29.90,East,84,0.0,5.0,98,0.00,,,0.04,0,Wunderground v.1.15,2013-06-05 07:27:00,
2013-06-05 02:29:00,61.6,61.0,29.90,East,87,1.0,5.0,98,0.00,,,0.04,0,Wunderground v.1.15,2013-06-05 07:29:00,
2013-06-05 02:30:00,61.6,61.0,29.90,East,87,2.0,2.0,98,0.00,,,0.04,0,Wunderground v.1.15,2013-06-05 07:30:00,
2013-06-05 02:31:00,61.7,61.1,29.90,East,87,2.0,3.0,98,0.00,,,0.04,0,Wunderground v.1.15,2013-06-05 07:31:00,
2013-06-05 02:32:00,61.7,61.1,29.90,East,91,5.0,5.0,98,0.00,,,0.04,0,Wunderground v.1.15,2013-06-05 07:32:00,
2013-06-05 02:35:00,61.6,61.0,29.90,East,83,2.0,5.0,98,0.00,,,0.04,0,Wunderground v.1.15,2013-06-05 07:35:00,
2013-06-05 02:37:00,61.6,61.0,29.90,East,79,1.0,5.0,98,0.00,,,0.04,0,Wunderground v.1.15,2013-06-05 07:37:00,
2013-06-05 02:38:00,61.6,61.0,29.91,East,79,0.0,5.0,98,0.00,,,0.04,0,Wunderground v.1.15,2013-06-05 07:38:00,
2013-06-05 02:40:00,61.7,61.1,29.90,East,79,2.0,2.0,98,0.00,,,0.04,0,Wunderground v.1.15,2013-06-05 07:40:00,
2013-06-05 02:42:00,61.6,61.0,29.90,East,82,3.0,3.0,98,0.00,,,0.04,0,Wunderground v.1.15,2013-06-05 07:42:00,
2013-06-05 02:43:00,61.7,61.1,29.90,East,88,6.0,6.0,98,0.00,,,0.04,0,Wunderground v.1.15,2013-06-05 07:43:00,
2013-06-05 02:44:00,61.7,61.1,29.90,ENE,78,4.0,6.0,98,0.00,,,0.04,0,Wunderground v.1.15,2013-06-05 07:44:00,
2013-06-05 02:48:00,61.7,61.1,29.90,East,90,2.0,6.0,98,0.00,,,0.04,0,Wunderground v.1.15,2013-06-05 07:48:00,
2013-06-05 02:49:00,61.7,61.1,29.90,East,90,1.0,6.0,98,0.00,,,0.04,0,Wunderground v.1.15,2013-06-05 07:49:00,
2013-06-05 02:54:00,61.7,61.1,29.90,East,90,2.0,2.0,98,0.00,,,0.04,0,Wunderground v.1.15,2013-06-05 07:54:00,
2013-06-05 02:57:00,61.8,61.2,29.90,East,90,0.0,2.0,98,0.00,,,0.04,0,Wunderground v.1.15,2013-06-05 07:57:00,
2013-06-05 02:59:00,61.8,61.2,29.90,East,90,0.0,2.0,98,0.00,,,0.04,0,Wunderground v.1.15,2013-06-05 07:59:00,
2013-06-05 03:00:00,61.8,61.2,29.90,East,90,1.0,1.0,98,0.00,,,0.04,0,Wunderground v.1.15,2013-06-05 08:00:00,
2013-06-05 03:02:00,61.8,61.2,29.90,East,90,0.0,3.0,98,0.00,,,0.04,0,Wunderground v.1.15,2013-06-05 08:02:00,
2013-06-05 03:03:00,61.8,61.2,29.90,East,90,0.0,3.0,98,0.00,,,0.04,0,Wunderground v.1.15,2013-06-05 08:03:00,
2013-06-05 03:05:00,61.8,61.2,29.90,East,90,0.0,3.0,98,0.00,,,0.04,0,Wunderground v.1.15,2013-06-05 08:05:00,
2013-06-05 03:06:00,61.8,61.2,29.90,East,90,0.0,3.0,98,0.00,,,0.04,0,Wunderground v.1.15,2013-06-05 08:06:00,
2013-06-05 03:08:00,61.8,61.2,29.90,East,90,0.0,3.0,98,0.00,,,0.04,0,Wunderground v.1.15,2013-06-05 08:08:00,
2013-06-05 03:09:00,61.8,61.2,29.90,East,90,0.0,3.0,98,0.00,,,0.04,0,Wunderground v.1.15,2013-06-05 08:09:00,
2013-06-05 03:11:00,61.8,61.2,29.90,East,90,0.0,0.0,98,0.00,,,0.04,0,Wunderground v.1.15,2013-06-05 08:11:00,
2013-06-05 03:12:00,61.8,61.2,29.90,East,90,0.0,0.0,98,0.00,,,0.04,0,Wunderground v.1.15,2013-06-05 08:12:00,
2013-06-05 03:13:00,61.8,61.2,29.90,East,90,0.0,0.0,98,0.00,,,0.04,0,Wunderground v.1.15,2013-06-05 08:13:00,
2013-06-05 03:15:00,61.8,61.2,29.90,East,90,0.0,0.0,98,0.00,,,0.04,0,Wunderground v.1.15,2013-06-05 08:15:00,
2013-06-05 03:17:00,61.8,61.2,29.90,East,90,0.0,0.0,98,0.00,,,0.04,0,Wunderground v.1.15,2013-06-05 08:17:00,
2013-06-05 03:20:00,61.8,61.2,29.90,East,90,0.0,0.0,98,0.00,,,0.04,0,Wunderground v.1.15,2013-06-05 08:20:00,
2013-06-05 03:21:00,61.8,61.2,29.90,East,90,0.0,0.0,98,0.00,,,0.04,0,Wunderground v.1.15,2013-06-05 08:21:00,
2013-06-05 03:23:00,61.8,61.2,29.89,East,90,0.0,0.0,98,0.00,,,0.04,0,Wunderground v.1.15,2013-06-05 08:23:00,
2013-06-05 03:27:00,61.8,61.2,29.89,East,90,0.0,1.0,98,0.00,,,0.04,0,Wunderground v.1.15,2013-06-05 08:27:00,
2013-06-05 03:28:00,61.8,61.2,29.89,East,90,0.0,1.0,98,0.00,,,0.04,0,Wunderground v.1.15,2013-06-05 08:28:00,
2013-06-05 03:29:00,61.8,61.2,29.89,East,90,0.0,1.0,98,0.00,,,0.04,0,Wunderground v.1.15,2013-06-05 08:29:00,
2013-06-05 03:30:00,61.8,61.2,29.89,East,90,0.0,0.0,98,0.00,,,0.04,0,Wunderground v.1.15,2013-06-05 08:30:00,
2013-06-05 03:33:00,61.8,61.2,29.89,East,90,0.0,0.0,98,0.00,,,0.04,0,Wunderground v.1.15,2013-06-05 08:33:00,
2013-06-05 03:34:00,61.8,61.2,29.89,East,90,0.0,0.0,98,0.00,,,0.04,0,Wunderground v.1.15,2013-06-05 08:34:00,
2013-06-05 03:35:00,61.8,61.2,29.89,East,90,0.0,0.0,98,0.00,,,0.04,0,Wunderground v.1.15,2013-06-05 08:35:00,
2013-06-05 03:36:00,61.8,61.2,29.89,East,90,0.0,0.0,98,0.00,,,0.04,0,Wunderground v.1.15,2013-06-05 08:36:00,
2013-06-05 03:38:00,61.8,61.2,29.89,East,90,0.0,0.0,98,0.00,,,0.04,0,Wunderground v.1.15,2013-06-05 08:38:00,
2013-06-05 03:39:00,61.8,61.2,29.89,East,90,0.0,0.0,98,0.00,,,0.04,0,Wunderground v.1.15,2013-06-05 08:39:00,
2013-06-05 03:41:00,61.8,61.2,29.90,East,90,0.0,0.0,98,0.00,,,0.04,0,Wunderground v.1.15,2013-06-05 08:41:00,
2013-06-05 03:42:00,61.8,61.2,29.89,East,90,0.0,0.0,98,0.00,,,0.04,0,Wunderground v.1.15,2013-06-05 08:42:00,
2013-06-05 03:43:00,61.8,61.2,29.89,East,90,0.0,0.0,98,0.00,,,0.04,0,Wunderground v.1.15,2013-06-05 08:43:00,
2013-06-05 03:44:00,61.8,61.2,29.89,East,90,0.0,0.0,98,0.00,,,0.04,0,Wunderground v.1.15,2013-06-05 08:44:00,
2013-06-05 03:45:00,61.8,61.2,29.90,East,90,0.0,0.0,98,0.00,,,0.05,0,Wunderground v.1.15,2013-06-05 08:45:00,
2013-06-05 03:48:00,61.8,61.2,29.89,East,90,0.0,0.0,98,0.00,,,0.05,0,Wunderground v.1.15,2013-06-05 08:48:00,
2013-06-05 03:49:00,61.8,61.2,29.89,East,90,0.0,0.0,98,0.16,,,0.06,0,Wunderground v.1.15,2013-06-05 08:49:00,
2013-06-05 03:50:00,61.8,61.2,29.89,East,90,0.0,0.0,98,0.16,,,0.06,0,Wunderground v.1.15,2013-06-05 08:50:00,
2013-06-05 03:53:00,61.9,61.3,29.90,East,90,0.0,0.0,98,0.12,,,0.06,0,Wunderground v.1.15,2013-06-05 08:53:00,
2013-06-05 03:54:00,61.9,61.3,29.90,East,90,0.0,0.0,98,0.10,,,0.06,0,Wunderground v.1.15,2013-06-05 08:54:00,
2013-06-05 03:55:00,61.9,61.3,29.90,East,90,0.0,0.0,98,0.08,,,0.06,0,Wunderground v.1.15,2013-06-05 08:55:00,
2013-06-05 03:58:00,61.9,61.3,29.90,East,90,0.0,0.0,98,0.06,,,0.06,0,Wunderground v.1.15,2013-06-05 08:58:00,
2013-06-05 04:00:00,61.9,61.3,29.90,East,90,0.0,0.0,98,0.05,,,0.06,0,Wunderground v.1.15,2013-06-05 09:00:00,
2013-06-05 04:03:00,61.9,61.3,29.89,East,90,0.0,0.0,98,0.04,,,0.06,0,Wunderground v.1.15,2013-06-05 09:03:00,
2013-06-05 04:05:00,61.9,61.3,29.89,East,90,0.0,0.0,98,0.34,,,0.08,0,Wunderground v.1.15,2013-06-05 09:05:00,
2013-06-05 04:06:00,61.8,61.2,29.89,East,90,0.0,0.0,98,0.34,,,0.08,0,Wunderground v.1.15,2013-06-05 09:06:00,
2013-06-05 04:07:00,61.9,61.3,29.89,East,90,0.0,0.0,98,0.43,,,0.09,0,Wunderground v.1.15,2013-06-05 09:07:00,
2013-06-05 04:08:00,61.8,61.2,29.89,East,90,0.0,0.0,98,0.38,,,0.10,0,Wunderground v.1.15,2013-06-05 09:08:00,
2013-06-05 04:10:00,61.8,61.2,29.89,East,90,0.0,0.0,98,0.25,,,0.10,0,Wunderground v.1.15,2013-06-05 09:10:00,
2013-06-05 04:12:00,61.8,61.2,29.89,East,90,0.0,0.0,98,0.16,,,0.10,0,Wunderground v.1.15,2013-06-05 09:12:00,
2013-06-05 04:13:00,61.8,61.2,29.89,East,90,3.0,3.0,98,0.14,,,0.11,0,Wunderground v.1.15,2013-06-05 09:13:00,
2013-06-05 04:15:00,61.8,61.2,29.89,SE,125,2.0,4.0,98,0.14,,,0.11,0,Wunderground v.1.15,2013-06-05 09:15:00,
2013-06-05 04:16:00,61.8,61.2,29.89,SE,127,2.0,4.0,98,0.14,,,0.11,0,Wunderground v.1.15,2013-06-05 09:16:00,
2013-06-05 04:18:00,61.8,61.2,29.89,SE,127,1.0,4.0,98,1.02,,,0.13,0,Wunderground v.1.15,2013-06-05 09:18:00,
2013-06-05 04:21:00,61.8,61.2,29.89,SE,132,3.0,3.0,98,0.18,,,0.14,0,Wunderground v.1.15,2013-06-05 09:21:00,
2013-06-05 04:23:00,61.8,61.2,29.89,SE,131,4.0,4.0,98,0.11,,,0.14,0,Wunderground v.1.15,2013-06-05 09:23:00,
2013-06-05 04:24:00,61.8,61.2,29.89,SE,132,4.0,4.0,98,0.10,,,0.14,0,Wunderground v.1.15,2013-06-05 09:24:00,
2013-06-05 04:26:00,61.8,61.2,29.89,SE,137,4.0,6.0,98,0.08,,,0.14,0,Wunderground v.1.15,2013-06-05 09:26:00,
2013-06-05 04:27:00,61.8,61.2,29.89,SE,134,2.0,6.0,98,0.07,,,0.14,0,Wunderground v.1.15,2013-06-05 09:27:00,
2013-06-05 04:29:00,61.8,61.2,29.89,SE,142,2.0,6.0,98,0.05,,,0.14,0,Wunderground v.1.15,2013-06-05 09:29:00,
2013-06-05 04:30:00,61.8,61.2,29.89,SSE,154,2.0,3.0,98,0.05,,,0.14,0,Wunderground v.1.15,2013-06-05 09:30:00,
2013-06-05 04:32:00,61.8,61.2,29.89,SSE,154,2.0,3.0,98,0.04,,,0.14,0,Wunderground v.1.15,2013-06-05 09:32:00,
2013-06-05 04:33:00,61.8,61.2,29.89,SSE,154,1.0,3.0,98,0.04,,,0.14,0,Wunderground v.1.15,2013-06-05 09:33:00,
2013-06-05 04:35:00,61.8,61.2,29.89,SSE,154,2.0,3.0,98,0.00,,,0.14,0,Wunderground v.1.15,2013-06-05 09:35:00,
2013-06-05 04:36:00,61.8,61.2,29.89,SSE,154,1.0,3.0,98,0.00,,,0.14,0,Wunderground v.1.15,2013-06-05 09:36:00,
2013-06-05 04:37:00,61.8,61.2,29.89,SSE,154,0.0,3.0,98,0.00,,,0.14,0,Wunderground v.1.15,2013-06-05 09:37:00,
2013-06-05 04:38:00,61.9,61.3,29.89,SSE,157,2.0,3.0,98,0.00,,,0.14,0,Wunderground v.1.15,2013-06-05 09:38:00,
2013-06-05 04:39:00,61.9,61.3,29.89,SSE,157,0.0,3.0,98,0.00,,,0.14,0,Wunderground v.1.15,2013-06-05 09:39:00,
2013-06-05 04:41:00,61.9,61.3,29.89,SSE,157,0.0,2.0,98,0.00,,,0.14,0,Wunderground v.1.15,2013-06-05 09:41:00,
2013-06-05 04:42:00,61.9,61.3,29.89,SSE,157,1.0,2.0,98,0.00,,,0.14,0,Wunderground v.1.15,2013-06-05 09:42:00,
2013-06-05 04:45:00,61.9,61.3,29.89,SSE,157,2.0,2.0,98,0.00,,,0.14,0,Wunderground v.1.15,2013-06-05 09:45:00,
2013-06-05 04:47:00,61.9,61.3,29.89,SSE,157,1.0,2.0,98,0.00,,,0.14,0,Wunderground v.1.15,2013-06-05 09:47:00,
2013-06-05 04:48:00,61.9,61.3,29.88,SSE,157,0.0,2.0,98,0.00,,,0.14,0,Wunderground v.1.15,2013-06-05 09:48:00,
2013-06-05 04:51:00,61.9,61.3,29.89,SSE,157,1.0,1.0,98,0.00,,,0.14,0,Wunderground v.1.15,2013-06-05 09:51:00,
2013-06-05 04:52:00,61.9,61.3,29.89,SSE,157,2.0,2.0,98,0.00,,,0.14,0,Wunderground v.1.15,2013-06-05 09:52:00,
2013-06-05 04:54:00,61.9,61.3,29.89,SSE,157,1.0,2.0,98,0.00,,,0.14,0,Wunderground v.1.15,2013-06-05 09:54:00,
2013-06-05 04:55:00,61.9,61.3,29.89,SSE,157,0.0,2.0,98,0.00,,,0.14,0,Wunderground v.1.15,2013-06-05 09:55:00,
2013-06-05 04:58:00,61.9,61.3,29.89,SSE,157,0.0,2.0,98,0.00,,,0.14,0,Wunderground v.1.15,2013-06-05 09:58:00,
2013-06-05 04:59:00,61.9,61.3,29.89,SSE,157,0.0,2.0,98,0.00,,,0.14,0,Wunderground v.1.15,2013-06-05 09:59:00,
2013-06-05 05:00:00,61.9,61.3,29.89,SSE,157,0.0,0.0,98,0.00,,,0.14,0,Wunderground v.1.15,2013-06-05 10:00:00,
2013-06-05 05:02:00,61.9,61.3,29.89,SSE,157,0.0,0.0,98,0.00,,,0.14,0,Wunderground v.1.15,2013-06-05 10:02:00,
2013-06-05 05:04:00,61.9,61.3,29.89,SSE,157,0.0,0.0,98,0.00,,,0.14,0,Wunderground v.1.15,2013-06-05 10:04:00,
2013-06-05 05:05:00,61.9,61.3,29.89,SSE,157,0.0,0.0,98,0.00,,,0.14,0,Wunderground v.1.15,2013-06-05 10:05:00,
2013-06-05 05:06:00,62.0,61.4,29.89,SSE,157,0.0,0.0,98,0.00,,,0.14,0,Wunderground v.1.15,2013-06-05 10:06:00,
2013-06-05 05:07:00,61.9,61.3,29.90,SSE,157,1.0,2.0,98,0.00,,,0.14,0,Wunderground v.1.15,2013-06-05 10:07:00,
2013-06-05 05:09:00,62.0,61.4,29.90,SSE,157,0.0,2.0,98,0.00,,,0.14,0,Wunderground v.1.15,2013-06-05 10:09:00,
2013-06-05 05:11:00,62.0,61.4,29.90,SSE,157,0.0,0.0,98,0.00,,,0.14,0,Wunderground v.1.15,2013-06-05 10:11:00,
2013-06-05 05:12:00,62.0,61.4,29.90,SSE,157,0.0,0.0,98,0.00,,,0.14,0,Wunderground v.1.15,2013-06-05 10:12:00,
2013-06-05 05:14:00,62.0,61.4,29.91,NW,322,0.0,3.0,98,0.00,,,0.14,0,Wunderground v.1.15,2013-06-05 10:14:00,
2013-06-05 05:17:00,62.0,61.4,29.91,NW,323,1.0,5.0,98,0.00,,,0.14,0,Wunderground v.1.15,2013-06-05 10:17:00,
2013-06-05 05:19:00,61.9,61.3,29.90,NW,316,0.0,5.0,98,0.00,,,0.14,0,Wunderground v.1.15,2013-06-05 10:19:00,
2013-06-05 05:20:00,61.9,61.3,29.90,NW,316,0.0,1.0,98,0.00,,,0.14,0,Wunderground v.1.15,2013-06-05 10:20:00,
2013-06-05 05:23:00,61.8,61.2,29.90,NNW,339,0.0,1.0,98,0.00,,,0.14,0,Wunderground v.1.15,2013-06-05 10:23:00,
2013-06-05 05:24:00,61.8,61.2,29.90,North,360,2.0,2.0,98,0.00,,,0.15,0,Wunderground v.1.15,2013-06-05 10:24:00,
2013-06-05 05:25:00,61.8,61.2,29.90,North,5,1.0,2.0,98,0.00,,,0.15,0,Wunderground v.1.15,2013-06-05 10:25:00,
2013-06-05 05:29:00,61.8,61.2,29.90,NNE,22,1.0,3.0,98,0.17,,,0.16,0,Wunderground v.1.15,2013-06-05 10:29:00,
2013-06-05 05:31:00,61.7,61.1,29.90,North,5,3.0,3.0,98,0.12,,,0.16,0,Wunderground v.1.15,2013-06-05 10:31:00,
2013-06-05 05:32:00,61.7,61.1,29.90,North,5,4.0,4.0,98,0.10,,,0.16,0,Wunderground v.1.15,2013-06-05 10:32:00,
2013-06-05 05:33:00,61.7,61.1,29.90,NNE,17,2.0,4.0,98,0.08,,,0.16,0,Wunderground v.1.15,2013-06-05 10:33:00,
2013-06-05 05:35:00,61.7,61.1,29.90,NNE,17,1.0,4.0,98,0.06,,,0.16,0,Wunderground v.1.15,2013-06-05 10:35:00,
2013-06-05 05:36:00,61.7,61.1,29.90,NNE,17,0.0,4.0,98,0.06,,,0.16,0,Wunderground v.1.15,2013-06-05 10:36:00,
2013-06-05 05:37:00,61.6,61.0,29.90,North,11,1.0,4.0,98,0.05,,,0.16,0,Wunderground v.1.15,2013-06-05 10:37:00,
2013-06-05 05:40:00,61.6,61.0,29.89,North,11,0.0,1.0,98,0.04,,,0.16,0,Wunderground v.1.15,2013-06-05 10:40:00,
2013-06-05 05:42:00,61.6,61.0,29.89,NNE,25,2.0,2.0,98,0.04,,,0.16,0,Wunderground v.1.15,2013-06-05 10:42:00,
2013-06-05 05:43:00,61.6,61.0,29.89,NNE,25,1.0,2.0,98,0.04,,,0.16,0,Wunderground v.1.15,2013-06-05 10:43:00,
2013-06-05 05:44:00,61.6,61.0,29.89,NNE,25,0.0,2.0,98,0.00,,,0.16,0,Wunderground v.1.15,2013-06-05 10:44:00,
2013-06-05 05:47:00,61.6,61.0,29.89,NNE,25,0.0,2.0,98,0.00,,,0.16,0,Wunderground v.1.15,2013-06-05 10:47:00,
2013-06-05 05:49:00,61.6,61.0,29.89,NNE,25,0.0,2.0,98,0.00,,,0.16,0,Wunderground v.1.15,2013-06-05 10:49:00,
2013-06-05 05:50:00,61.6,61.0,29.89,NNE,25,0.0,0.0,98,0.00,,,0.16,0,Wunderground v.1.15,2013-06-05 10:50:00,
2013-06-05 05:52:00,61.6,61.0,29.89,NNE,25,0.0,0.0,98,0.00,,,0.16,0,Wunderground v.1.15,2013-06-05 10:52:00,
2013-06-05 05:54:00,61.6,61.0,29.89,NNE,25,0.0,0.0,98,0.00,,,0.16,0,Wunderground v.1.15,2013-06-05 10:54:00,
2013-06-05 05:56:00,61.6,61.0,29.89,NNE,25,0.0,0.0,98,0.00,,,0.16,0,Wunderground v.1.15,2013-06-05 10:56:00,
2013-06-05 05:57:00,61.6,61.0,29.89,NNE,25,0.0,0.0,98,0.00,,,0.16,0,Wunderground v.1.15,2013-06-05 10:57:00,
2013-06-05 05:58:00,61.6,61.0,29.89,NNE,25,0.0,0.0,98,0.00,,,0.16,0,Wunderground v.1.15,2013-06-05 10:58:00,
2013-06-05 05:59:00,61.6,61.0,29.89,NNE,25,0.0,0.0,98,0.00,,,0.16,5,Wunderground v.1.15,2013-06-05 10:59:00,
2013-06-05 06:00:00,61.6,61.0,29.89,NNE,25,0.0,0.0,98,0.00,,,0.16,5,Wunderground v.1.15,2013-06-05 11:00:00,
2013-06-05 06:02:00,61.6,61.0,29.89,NNE,25,0.0,0.0,98,0.00,,,0.16,5,Wunderground v.1.15,2013-06-05 11:02:00,
2013-06-05 06:03:00,61.6,61.0,29.89,NNE,25,0.0,0.0,98,0.00,,,0.16,7,Wunderground v.1.15,2013-06-05 11:03:00,
2013-06-05 06:04:00,61.6,61.0,29.88,NNE,25,0.0,0.0,98,0.00,,,0.16,7,Wunderground v.1.15,2013-06-05 11:04:00,
2013-06-05 06:07:00,61.7,61.1,29.88,NNE,25,0.0,1.0,98,0.00,,,0.16,7,Wunderground v.1.15,2013-06-05 11:07:00,
2013-06-05 06:08:00,61.7,61.1,29.88,NNE,25,0.0,1.0,98,0.00,,,0.16,7,Wunderground v.1.15,2013-06-05 11:08:00,
2013-06-05 06:09:00,61.7,61.1,29.88,NNE,25,1.0,1.0,98,0.00,,,0.16,9,Wunderground v.1.15,2013-06-05 11:09:00,
2013-06-05 06:11:00,61.7,61.1,29.88,NNE,25,0.0,1.0,98,0.00,,,0.16,7,Wunderground v.1.15,2013-06-05 11:11:00,
2013-06-05 06:14:00,61.6,61.0,29.88,NNE,25,0.0,1.0,98,0.00,,,0.16,7,Wunderground v.1.15,2013-06-05 11:14:00,
2013-06-05 06:15:00,61.6,61.0,29.88,NNE,19,0.0,1.0,98,0.00,,,0.16,7,Wunderground v.1.15,2013-06-05 11:15:00,
2013-06-05 06:18:00,61.6,61.0,29.88,NNE,22,0.0,3.0,98,0.00,,,0.16,7,Wunderground v.1.15,2013-06-05 11:18:00,
2013-06-05 06:19:00,61.5,60.9,29.89,North,5,0.0,3.0,98,0.00,,,0.16,7,Wunderground v.1.15,2013-06-05 11:19:00,
2013-06-05 06:20:00,61.5,60.9,29.89,North,5,0.0,0.0,98,0.00,,,0.16,7,Wunderground v.1.15,2013-06-05 11:20:00,
2013-06-05 06:21:00,61.4,60.8,29.89,NNE,29,2.0,2.0,98,0.00,,,0.16,7,Wunderground v.1.15,2013-06-05 11:21:00,
2013-06-05 06:22:00,61.4,60.8,29.88,NNE,30,0.0,2.0,98,0.00,,,0.16,7,Wunderground v.1.15,2013-06-05 11:22:00,
2013-06-05 06:23:00,61.4,60.8,29.88,NNE,32,0.0,2.0,98,0.00,,,0.16,7,Wunderground v.1.15,2013-06-05 11:23:00,
2013-06-05 06:25:00,61.3,60.7,29.88,NNE,32,0.0,3.0,98,0.00,,,0.16,7,Wunderground v.1.15,2013-06-05 11:25:00,
2013-06-05 06:26:00,61.3,60.7,29.89,NNE,32,1.0,3.0,98,0.00,,,0.16,7,Wunderground v.1.15,2013-06-05 11:26:00,
2013-06-05 06:27:00,61.3,60.7,29.89,NNE,32,1.0,3.0,98,0.00,,,0.16,7,Wunderground v.1.15,2013-06-05 11:27:00,
2013-06-05 06:29:00,61.2,60.6,29.88,NNE,31,1.0,3.0,98,0.00,,,0.16,9,Wunderground v.1.15,2013-06-05 11:29:00,
2013-06-05 06:31:00,61.2,60.6,29.89,NNW,332,3.0,3.0,98,0.00,,,0.16,11,Wunderground v.1.15,2013-06-05 11:31:00,
2013-06-05 06:32:00,61.2,60.6,29.89,NNW,344,0.0,3.0,98,0.00,,,0.16,11,Wunderground v.1.15,2013-06-05 11:32:00,
2013-06-05 06:33:00,61.2,60.6,29.89,North,5,0.0,3.0,98,0.00,,,0.16,12,Wunderground v.1.15,2013-06-05 11:33:00,
2013-06-05 06:34:00,61.2,60.6,29.89,North,9,0.0,3.0,98,0.00,,,0.16,14,Wunderground v.1.15,2013-06-05 11:34:00,
2013-06-05 06:35:00,61.2,60.6,29.89,North,9,0.0,3.0,98,0.00,,,0.16,14,Wunderground v.1.15,2013-06-05 11:35:00,
2013-06-05 06:37:00,61.1,60.5,29.89,NNE,12,0.0,4.0,98,0.00,,,0.16,19,Wunderground v.1.15,2013-06-05 11:37:00,
2013-06-05 06:40:00,61.1,60.5,29.89,North,350,2.0,2.0,98,0.00,,,0.16,25,Wunderground v.1.15,2013-06-05 11:40:00,
2013-06-05 06:42:00,61.1,60.5,29.89,North,355,0.0,4.0,98,0.00,,,0.16,28,Wunderground v.1.15,2013-06-05 11:42:00,
2013-06-05 06:44:00,61.0,60.4,29.89,North,355,0.0,4.0,98,0.00,,,0.16,25,Wunderground v.1.15,2013-06-05 11:44:00,
2013-06-05 06:45:00,61.1,60.5,29.90,North,355,0.0,4.0,98,0.00,,,0.16,23,Wunderground v.1.15,2013-06-05 11:45:00,
2013-06-05 06:46:00,61.1,60.5,29.90,North,355,0.0,4.0,98,0.00,,,0.16,23,Wunderground v.1.15,2013-06-05 11:46:00,
2013-06-05 06:47:00,61.1,60.5,29.90,North,355,0.0,4.0,98,0.00,,,0.16,23,Wunderground v.1.15,2013-06-05 11:47:00,
2013-06-05 06:49:00,61.0,60.4,29.89,North,5,0.0,4.0,98,0.00,,,0.16,30,Wunderground v.1.15,2013-06-05 11:49:00,
2013-06-05 06:51:00,61.0,60.4,29.89,North,5,0.0,1.0,98,0.00,,,0.16,35,Wunderground v.1.15,2013-06-05 11:51:00,
2013-06-05 06:52:00,61.0,60.4,29.89,North,5,0.0,1.0,98,0.00,,,0.16,37,Wunderground v.1.15,2013-06-05 11:52:00,
2013-06-05 06:53:00,61.0,60.4,29.89,North,5,0.0,1.0,98,0.00,,,0.16,37,Wunderground v.1.15,2013-06-05 11:53:00,
2013-06-05 06:55:00,60.9,60.3,29.89,North,5,0.0,1.0,98,0.00,,,0.16,46,Wunderground v.1.15,2013-06-05 11:55:00,
2013-06-05 06:56:00,61.0,60.4,29.89,North,5,0.0,1.0,98,0.00,,,0.16,56,Wunderground v.1.15,2013-06-05 11:56:00,
2013-06-05 06:57:00,61.0,60.4,29.89,North,5,0.0,1.0,98,0.00,,,0.16,60,Wunderground v.1.15,2013-06-05 11:57:00,
2013-06-05 06:59:00,61.0,60.4,29.89,North,5,0.0,1.0,98,0.00,,,0.16,60,Wunderground v.1.15,2013-06-05 11:59:00,
2013-06-05 07:02:00,61.0,60.4,29.89,North,9,0.0,0.0,98,0.00,,,0.16,54,Wunderground v.1.15,2013-06-05 12:02:00,
2013-06-05 07:03:00,61.0,60.4,29.89,North,9,0.0,0.0,98,0.00,,,0.16,56,Wunderground v.1.15,2013-06-05 12:03:00,
2013-06-05 07:04:00,61.0,60.4,29.89,NNE,19,2.0,2.0,98,0.00,,,0.16,56,Wunderground v.1.15,2013-06-05 12:04:00,
2013-06-05 07:07:00,60.9,60.3,29.89,NNE,25,0.0,2.0,98,0.00,,,0.16,67,Wunderground v.1.15,2013-06-05 12:07:00,
2013-06-05 07:09:00,60.9,60.3,29.89,NNE,27,0.0,2.0,98,0.00,,,0.16,67,Wunderground v.1.15,2013-06-05 12:09:00,
2013-06-05 07:10:00,60.9,60.3,29.89,NNE,27,1.0,1.0,98,0.00,,,0.16,67,Wunderground v.1.15,2013-06-05 12:10:00,
2013-06-05 07:13:00,60.9,60.3,29.90,NNE,33,0.0,2.0,98,0.00,,,0.16,42,Wunderground v.1.15,2013-06-05 12:13:00,
2013-06-05 07:14:00,61.0,60.4,29.90,NNE,33,0.0,2.0,98,0.00,,,0.16,35,Wunderground v.1.15,2013-06-05 12:14:00,
2013-06-05 07:15:00,61.0,60.4,29.90,NNE,33,0.0,2.0,98,0.00,,,0.16,33,Wunderground v.1.15,2013-06-05 12:15:00,
2013-06-05 07:16:00,60.9,60.3,29.90,NNE,18,0.0,2.0,98,0.00,,,0.16,33,Wunderground v.1.15,2013-06-05 12:16:00,
2013-06-05 07:19:00,60.9,60.3,29.90,NNE,17,1.0,2.0,98,0.00,,,0.16,35,Wunderground v.1.15,2013-06-05 12:19:00,
2013-06-05 07:20:00,60.9,60.3,29.90,NNE,17,0.0,1.0,98,0.00,,,0.16,35,Wunderground v.1.15,2013-06-05 12:20:00,
2013-06-05 07:22:00,60.8,60.2,29.90,NNE,17,0.0,1.0,98,0.00,,,0.16,30,Wunderground v.1.15,2013-06-05 12:22:00,
2013-06-05 07:23:00,60.9,60.3,29.90,NNE,17,0.0,1.0,98,0.00,,,0.16,30,Wunderground v.1.15,2013-06-05 12:23:00,
2013-06-05 07:24:00,60.9,60.3,29.90,NNE,17,0.0,1.0,98,0.00,,,0.16,30,Wunderground v.1.15,2013-06-05 12:24:00,
2013-06-05 07:25:00,60.8,60.2,29.89,NNE,17,0.0,1.0,98,0.00,,,0.16,30,Wunderground v.1.15,2013-06-05 12:25:00,
2013-06-05 07:27:00,60.8,60.2,29.89,NNE,17,0.0,1.0,98,0.00,,,0.16,40,Wunderground v.1.15,2013-06-05 12:27:00,
2013-06-05 07:28:00,60.8,60.2,29.89,NNE,17,0.0,1.0,98,0.00,,,0.16,47,Wunderground v.1.15,2013-06-05 12:28:00,
2013-06-05 07:29:00,60.8,60.2,29.89,NNE,17,0.0,3.0,98,0.00,,,0.16,72,Wunderground v.1.15,2013-06-05 12:29:00,
2013-06-05 07:30:00,60.8,60.2,29.89,NNE,17,1.0,1.0,98,0.00,,,0.16,74,Wunderground v.1.15,2013-06-05 12:30:00,
2013-06-05 07:33:00,60.8,60.2,29.89,NNE,17,0.0,2.0,98,0.00,,,0.16,53,Wunderground v.1.15,2013-06-05 12:33:00,
2013-06-05 07:34:00,60.8,60.2,29.90,North,355,0.0,2.0,98,0.00,,,0.16,46,Wunderground v.1.15,2013-06-05 12:34:00,
2013-06-05 07:35:00,60.8,60.2,29.90,North,360,1.0,2.0,98,0.00,,,0.16,51,Wunderground v.1.15,2013-06-05 12:35:00,
2013-06-05 07:38:00,60.8,59.9,29.90,NNE,17,0.0,4.0,97,0.00,,,0.16,49,Wunderground v.1.15,2013-06-05 12:38:00,
2013-06-05 07:40:00,60.8,60.2,29.90,NNE,17,3.0,3.0,98,0.00,,,0.16,51,Wunderground v.1.15,2013-06-05 12:40:00,
2013-06-05 07:43:00,60.8,60.2,29.90,NNE,15,0.0,5.0,98,0.00,,,0.16,26,Wunderground v.1.15,2013-06-05 12:43:00,
2013-06-05 07:44:00,60.8,59.9,29.90,North,355,0.0,5.0,97,0.00,,,0.16,21,Wunderground v.1.15,2013-06-05 12:44:00,
2013-06-05 07:45:00,60.8,59.9,29.90,North,355,2.0,5.0,97,0.00,,,0.16,26,Wunderground v.1.15,2013-06-05 12:45:00,
2013-06-05 07:48:00,60.8,59.9,29.89,NNW,344,0.0,5.0,97,0.00,,,0.16,28,Wunderground v.1.15,2013-06-05 12:48:00,
2013-06-05 07:49:00,60.7,59.8,29.89,NNW,344,0.0,5.0,97,0.00,,,0.16,35,Wunderground v.1.15,2013-06-05 12:49:00,
2013-06-05 07:51:00,60.7,59.8,29.89,NNW,332,2.0,2.0,97,0.00,,,0.16,42,Wunderground v.1.15,2013-06-05 12:51:00,
2013-06-05 07:54:00,60.7,59.8,29.89,NW,319,0.0,2.0,97,0.00,,,0.16,37,Wunderground v.1.15,2013-06-05 12:54:00,
2013-06-05 07:55:00,60.7,59.8,29.89,NNW,339,3.0,3.0,97,0.00,,,0.16,37,Wunderground v.1.15,2013-06-05 12:55:00,
2013-06-05 07:57:00,60.6,59.7,29.89,NNE,15,3.0,4.0,97,0.00,,,0.16,32,Wunderground v.1.15,2013-06-05 12:57:00,
2013-06-05 07:59:00,60.5,59.6,29.89,NNE,20,4.0,5.0,97,0.00,,,0.16,35,Wunderground v.1.15,2013-06-05 12:59:00,
2013-06-05 08:00:00,60.5,59.6,29.89,NNE,21,1.0,2.0,97,0.00,,,0.16,35,Wunderground v.1.15,2013-06-05 13:00:00,
2013-06-05 08:01:00,60.4,59.5,29.89,NNE,22,1.0,2.0,97,0.00,,,0.16,40,Wunderground v.1.15,2013-06-05 13:01:00,
2013-06-05 08:02:00,60.4,59.5,29.89,NNE,21,4.0,5.0,97,0.00,,,0.16,46,Wunderground v.1.15,2013-06-05 13:02:00,
2013-06-05 08:03:00,60.4,59.5,29.89,NNW,327,1.0,5.0,97,0.00,,,0.16,46,Wunderground v.1.15,2013-06-05 13:03:00,
2013-06-05 08:04:00,60.3,59.4,29.89,NNE,15,5.0,5.0,97,0.00,,,0.16,44,Wunderground v.1.15,2013-06-05 13:04:00,
2013-06-05 08:06:00,60.3,59.4,29.89,NNW,342,0.0,5.0,97,0.00,,,0.16,46,Wunderground v.1.15,2013-06-05 13:06:00,
2013-06-05 08:07:00,60.3,59.4,29.89,NNW,342,0.0,5.0,97,0.00,,,0.16,40,Wunderground v.1.15,2013-06-05 13:07:00,
2013-06-05 08:08:00,60.4,59.5,29.89,NW,313,0.0,6.0,97,0.00,,,0.16,42,Wunderground v.1.15,2013-06-05 13:08:00,
2013-06-05 08:10:00,60.4,59.8,29.89,NNW,342,2.0,2.0,98,0.00,,,0.16,42,Wunderground v.1.15,2013-06-05 13:10:00,
2013-06-05 08:12:00,60.3,59.4,29.89,NNW,327,1.0,2.0,97,0.00,,,0.16,37,Wunderground v.1.15,2013-06-05 13:12:00,
2013-06-05 08:13:00,60.3,59.4,29.89,NNW,327,0.0,2.0,97,0.00,,,0.16,37,Wunderground v.1.15,2013-06-05 13:13:00,
2013-06-05 08:15:00,60.4,59.5,29.89,North,5,1.0,3.0,97,0.00,,,0.16,47,Wunderground v.1.15,2013-06-05 13:15:00,
2013-06-05 08:18:00,60.3,59.4,29.89,NNE,16,0.0,3.0,97,0.00,,,0.16,53,Wunderground v.1.15,2013-06-05 13:18:00,
2013-06-05 08:19:00,60.3,59.4,29.89,NNW,347,0.0,3.0,97,0.00,,,0.16,53,Wunderground v.1.15,2013-06-05 13:19:00,
2013-06-05 08:20:00,60.4,59.8,29.89,NNW,333,3.0,3.0,98,0.00,,,0.16,54,Wunderground v.1.15,2013-06-05 13:20:00,
2013-06-05 08:23:00,60.3,59.4,29.89,NNW,336,0.0,3.0,97,0.00,,,0.16,60,Wunderground v.1.15,2013-06-05 13:23:00,
2013-06-05 08:24:00,60.3,59.4,29.89,North,9,0.0,3.0,97,0.00,,,0.16,67,Wunderground v.1.15,2013-06-05 13:24:00,
2013-06-05 08:25:00,60.3,59.4,29.89,North,355,0.0,3.0,97,0.00,,,0.16,81,Wunderground v.1.15,2013-06-05 13:25:00,
2013-06-05 08:27:00,60.4,59.5,29.89,North,355,0.0,3.0,97,0.00,,,0.16,90,Wunderground v.1.15,2013-06-05 13:27:00,
2013-06-05 08:28:00,60.4,59.5,29.89,North,355,0.0,3.0,97,0.00,,,0.16,90,Wunderground v.1.15,2013-06-05 13:28:00,
2013-06-05 08:31:00,60.5,59.6,29.89,NNW,332,1.0,3.0,97,0.00,,,0.16,90,Wunderground v.1.15,2013-06-05 13:31:00,
2013-06-05 08:32:00,60.5,59.6,29.89,NNW,340,3.0,3.0,97,0.00,,,0.16,76,Wunderground v.1.15,2013-06-05 13:32:00,
2013-06-05 08:33:00,60.5,59.6,29.90,NNW,340,0.0,3.0,97,0.00,,,0.16,76,Wunderground v.1.15,2013-06-05 13:33:00,
2013-06-05 08:34:00,60.5,59.6,29.89,NNW,336,0.0,3.0,97,0.00,,,0.16,79,Wunderground v.1.15,2013-06-05 13:34:00,
2013-06-05 08:37:00,60.5,59.6,29.90,North,355,0.0,3.0,97,0.00,,,0.16,77,Wunderground v.1.15,2013-06-05 13:37:00,
2013-06-05 08:38:00,60.5,59.6,29.90,North,355,0.0,3.0,97,0.00,,,0.16,69,Wunderground v.1.15,2013-06-05 13:38:00,
2013-06-05 08:39:00,60.5,59.6,29.90,North,355,0.0,3.0,97,0.00,,,0.16,69,Wunderground v.1.15,2013-06-05 13:39:00,
2013-06-05 08:40:00,60.6,59.7,29.90,NW,323,1.0,1.0,97,0.00,,,0.16,69,Wunderground v.1.15,2013-06-05 13:40:00,
2013-06-05 08:43:00,60.5,59.6,29.90,North,355,1.0,2.0,97,0.00,,,0.16,100,Wunderground v.1.15,2013-06-05 13:43:00,
2013-06-05 08:44:00,60.5,59.6,29.90,North,350,0.0,2.0,97,0.00,,,0.16,100,Wunderground v.1.15,2013-06-05 13:44:00,
2013-06-05 08:45:00,60.5,59.6,29.90,North,349,0.0,2.0,97,0.00,,,0.16,105,Wunderground v.1.15,2013-06-05 13:45:00,
2013-06-05 08:47:00,60.6,59.7,29.90,North,350,0.0,2.0,97,0.00,,,0.16,111,Wunderground v.1.15,2013-06-05 13:47:00,
2013-06-05 08:48:00,60.6,59.7,29.90,North,355,0.0,2.0,97,0.00,,,0.16,95,Wunderground v.1.15,2013-06-05 13:48:00,
2013-06-05 08:49:00,60.6,59.7,29.90,North,355,0.0,2.0,97,0.00,,,0.16,95,Wunderground v.1.15,2013-06-05 13:49:00,
2013-06-05 08:50:00,60.6,59.7,29.90,NW,324,4.0,4.0,97,0.00,,,0.16,98,Wunderground v.1.15,2013-06-05 13:50:00,
2013-06-05 08:51:00,60.6,59.7,29.90,NW,321,0.0,4.0,97,0.00,,,0.16,98,Wunderground v.1.15,2013-06-05 13:51:00,
2013-06-05 08:53:00,60.7,59.8,29.91,NW,323,0.0,4.0,97,0.00,,,0.16,102,Wunderground v.1.15,2013-06-05 13:53:00,
2013-06-05 08:54:00,60.7,59.8,29.91,NNE,31,0.0,4.0,97,0.00,,,0.16,107,Wunderground v.1.15,2013-06-05 13:54:00,
2013-06-05 08:55:00,60.8,59.9,29.90,NNE,31,1.0,4.0,97,0.00,,,0.16,109,Wunderground v.1.15,2013-06-05 13:55:00,
2013-06-05 08:56:00,60.7,59.8,29.90,NNE,31,0.0,4.0,97,0.00,,,0.16,116,Wunderground v.1.15,2013-06-05 13:56:00,
2013-06-05 08:57:00,60.7,59.8,29.90,NW,311,4.0,4.0,97,0.00,,,0.16,116,Wunderground v.1.15,2013-06-05 13:57:00,
2013-06-05 08:59:00,60.8,59.9,29.91,NW,309,0.0,4.0,97,0.00,,,0.16,121,Wunderground v.1.15,2013-06-05 13:59:00,
2013-06-05 09:00:00,60.8,59.9,29.91,NW,309,0.0,1.0,97,0.00,,,0.16,121,Wunderground v.1.15,2013-06-05 14:00:00,
2013-06-05 09:02:00,60.8,59.9,29.91,NNW,343,2.0,3.0,97,0.00,,,0.16,118,Wunderground v.1.15,2013-06-05 14:02:00,
2013-06-05 09:05:00,60.9,60.0,29.91,NNW,337,0.0,3.0,97,0.00,,,0.16,118,Wunderground v.1.15,2013-06-05 14:05:00,
2013-06-05 09:06:00,60.9,60.0,29.91,NNW,331,0.0,3.0,97,0.00,,,0.16,118,Wunderground v.1.15,2013-06-05 14:06:00,
2013-06-05 09:08:00,61.1,60.2,29.91,North,351,1.0,3.0,97,0.00,,,0.16,127,Wunderground v.1.15,2013-06-05 14:08:00,
2013-06-05 09:10:00,61.0,60.1,29.91,NNW,345,0.0,0.0,97,0.00,,,0.16,113,Wunderground v.1.15,2013-06-05 14:10:00,
2013-06-05 09:11:00,61.0,60.1,29.91,NW,316,1.0,3.0,97,0.00,,,0.16,105,Wunderground v.1.15,2013-06-05 14:11:00,
2013-06-05 09:12:00,61.1,60.2,29.91,NW,316,0.0,3.0,97,0.00,,,0.16,105,Wunderground v.1.15,2013-06-05 14:12:00,
2013-06-05 09:14:00,61.1,60.2,29.91,NW,316,0.0,3.0,97,0.00,,,0.16,97,Wunderground v.1.15,2013-06-05 14:14:00,
2013-06-05 09:15:00,61.1,60.2,29.91,NW,317,0.0,3.0,97,0.00,,,0.16,97,Wunderground v.1.15,2013-06-05 14:15:00,
2013-06-05 09:16:00,61.1,60.2,29.91,NW,317,0.0,3.0,97,0.00,,,0.16,123,Wunderground v.1.15,2013-06-05 14:16:00,
2013-06-05 09:18:00,61.2,60.3,29.91,NW,317,0.0,3.0,97,0.00,,,0.16,123,Wunderground v.1.15,2013-06-05 14:18:00,
2013-06-05 09:20:00,61.2,60.3,29.91,NW,317,0.0,1.0,97,0.00,,,0.16,116,Wunderground v.1.15,2013-06-05 14:20:00,
2013-06-05 09:21:00,61.2,60.3,29.92,NW,315,1.0,4.0,97,0.00,,,0.16,109,Wunderground v.1.15,2013-06-05 14:21:00,
2013-06-05 09:24:00,61.2,60.3,29.92,NW,315,5.0,5.0,97,0.00,,,0.16,109,Wunderground v.1.15,2013-06-05 14:24:00,
2013-06-05 09:25:00,61.3,60.4,29.92,NW,320,0.0,5.0,97,0.00,,,0.16,90,Wunderground v.1.15,2013-06-05 14:25:00,
2013-06-05 09:27:00,61.3,60.4,29.92,NW,320,0.0,5.0,97,0.00,,,0.16,90,Wunderground v.1.15,2013-06-05 14:27:00,
2013-06-05 09:29:00,61.2,60.1,29.92,NW,319,3.0,5.0,96,0.00,,,0.16,70,Wunderground v.1.15,2013-06-05 14:29:00,
2013-06-05 09:32:00,61.1,60.0,29.92,NW,326,4.0,4.0,96,0.00,,,0.16,81,Wunderground v.1.15,2013-06-05 14:32:00,
2013-06-05 09:34:00,61.1,60.0,29.92,NW,317,3.0,4.0,96,0.00,,,0.16,81,Wunderground v.1.15,2013-06-05 14:34:00,
2013-06-05 09:35:00,61.2,60.1,29.92,NW,319,5.0,5.0,96,0.00,,,0.16,83,Wunderground v.1.15,2013-06-05 14:35:00,
2013-06-05 09:36:00,61.2,60.1,29.92,NW,318,4.0,7.0,96,0.00,,,0.16,111,Wunderground v.1.15,2013-06-05 14:36:00,
2013-06-05 09:38:00,61.2,60.1,29.92,NW,323,1.0,7.0,96,0.00,,,0.16,134,Wunderground v.1.15,2013-06-05 14:38:00,
2013-06-05 09:39:00,61.2,60.1,29.92,NW,316,1.0,7.0,96,0.00,,,0.16,144,Wunderground v.1.15,2013-06-05 14:39:00,
2013-06-05 09:40:00,61.2,60.1,29.93,NW,325,2.0,4.0,96,0.00,,,0.16,141,Wunderground v.1.15,2013-06-05 14:40:00,
2013-06-05 09:42:00,61.2,60.1,29.93,NW,317,3.0,4.0,96,0.00,,,0.16,132,Wunderground v.1.15,2013-06-05 14:42:00,
2013-06-05 09:43:00,61.3,60.2,29.93,NW,322,7.0,7.0,96,0.00,,,0.16,91,Wunderground v.1.15,2013-06-05 14:43:00,
2013-06-05 09:44:00,61.4,60.2,29.93,NW,321,7.0,8.0,96,0.00,,,0.16,81,Wunderground v.1.15,2013-06-05 14:44:00,
2013-06-05 09:47:00,61.4,60.2,29.93,NW,319,7.0,9.0,96,0.00,,,0.16,90,Wunderground v.1.15,2013-06-05 14:47:00,
2013-06-05 09:48:00,61.4,60.2,29.93,NW,311,7.0,10.0,96,0.00,,,0.16,102,Wunderground v.1.15,2013-06-05 14:48:00,
2013-06-05 09:49:00,61.4,60.2,29.93,NNW,328,6.0,10.0,96,0.00,,,0.16,113,Wunderground v.1.15,2013-06-05 14:49:00,
2013-06-05 09:51:00,61.4,60.2,29.93,NNW,343,3.0,8.0,96,0.00,,,0.16,162,Wunderground v.1.15,2013-06-05 14:51:00,
2013-06-05 09:52:00,61.4,60.2,29.93,NW,324,2.0,8.0,96,0.00,,,0.16,186,Wunderground v.1.15,2013-06-05 14:52:00,
2013-06-05 09:53:00,61.4,60.2,29.93,NW,317,2.0,8.0,96,0.00,,,0.16,186,Wunderground v.1.15,2013-06-05 14:53:00,
2013-06-05 09:56:00,61.5,60.3,29.93,NW,313,1.0,8.0,96,0.00,,,0.16,209,Wunderground v.1.15,2013-06-05 14:56:00,
2013-06-05 09:57:00,61.6,60.4,29.92,NW,321,2.0,8.0,96,0.00,,,0.16,227,Wunderground v.1.15,2013-06-05 14:57:00,
2013-06-05 09:58:00,61.7,60.5,29.92,NNW,334,1.0,8.0,96,0.00,,,0.16,227,Wunderground v.1.15,2013-06-05 14:58:00,
2013-06-05 10:02:00,62.0,60.8,29.92,NW,323,6.0,6.0,96,0.00,,,0.16,232,Wunderground v.1.15,2013-06-05 15:02:00,
2013-06-05 10:03:00,62.0,60.8,29.92,NNW,327,1.0,6.0,96,0.00,,,0.16,243,Wunderground v.1.15,2013-06-05 15:03:00,
2013-06-05 10:04:00,62.1,60.9,29.92,NW,319,3.0,6.0,96,0.00,,,0.16,243,Wunderground v.1.15,2013-06-05 15:04:00,
2013-06-05 10:05:00,62.0,60.6,29.92,NW,321,6.0,6.0,95,0.00,,,0.16,243,Wunderground v.1.15,2013-06-05 15:05:00,
2013-06-05 10:08:00,62.0,60.6,29.92,NNW,327,3.0,6.0,95,0.00,,,0.16,302,Wunderground v.1.15,2013-06-05 15:08:00,
2013-06-05 10:09:00,62.0,60.6,29.92,NNW,331,0.0,6.0,95,0.00,,,0.16,323,Wunderground v.1.15,2013-06-05 15:09:00,
2013-06-05 10:12:00,62.5,61.3,29.92,NW,320,0.0,3.0,96,0.00,,,0.16,348,Wunderground v.1.15,2013-06-05 15:12:00,
2013-06-05 10:13:00,62.5,61.0,29.92,NW,319,3.0,3.0,95,0.00,,,0.16,346,Wunderground v.1.15,2013-06-05 15:13:00,
2013-06-05 10:15:00,62.6,61.1,29.92,NW,316,3.0,3.0,95,0.00,,,0.16,260,Wunderground v.1.15,2013-06-05 15:15:00,
2013-06-05 10:20:00,62.6,60.8,29.92,NW,307,5.0,5.0,94,0.00,,,0.16,227,Wunderground v.1.15,2013-06-05 15:20:00,
2013-06-05 10:21:00,62.6,60.8,29.92,NNW,333,3.0,8.0,94,0.00,,,0.16,195,Wunderground v.1.15,2013-06-05 15:21:00,
2013-06-05 10:22:00,62.6,60.8,29.92,NW,323,4.0,8.0,94,0.00,,,0.16,181,Wunderground v.1.15,2013-06-05 15:22:00,
2013-06-05 10:23:00,62.6,60.8,29.92,NNW,329,2.0,8.0,94,0.00,,,0.16,156,Wunderground v.1.15,2013-06-05 15:23:00,
2013-06-05 10:25:00,62.6,60.8,29.92,NW,316,3.0,10.0,94,0.00,,,0.16,116,Wunderground v.1.15,2013-06-05 15:25:00,
2013-06-05 10:26:00,62.6,60.8,29.92,NW,323,2.0,10.0,94,0.00,,,0.16,116,Wunderground v.1.15,2013-06-05 15:26:00,
2013-06-05 10:28:00,62.6,60.8,29.92,NW,325,8.0,10.0,94,0.00,,,0.16,160,Wunderground v.1.15,2013-06-05 15:28:00,
2013-06-05 10:29:00,62.5,60.7,29.92,NNW,328,8.0,10.0,94,0.00,,,0.16,176,Wunderground v.1.15,2013-06-05 15:29:00,
2013-06-05 10:31:00,62.4,60.7,29.92,NW,321,6.0,10.0,94,0.00,,,0.16,246,Wunderground v.1.15,2013-06-05 15:31:00,
2013-06-05 10:32:00,62.4,60.7,29.92,NNW,333,3.0,10.0,94,0.00,,,0.16,253,Wunderground v.1.15,2013-06-05 15:32:00,
2013-06-05 10:34:00,62.5,60.7,29.92,NNW,331,7.0,10.0,94,0.00,,,0.16,255,Wunderground v.1.15,2013-06-05 15:34:00,
2013-06-05 10:36:00,62.6,60.8,29.92,NW,316,6.0,10.0,94,0.00,,,0.16,279,Wunderground v.1.15,2013-06-05 15:36:00,
2013-06-05 10:37:00,62.7,60.9,29.92,NNW,332,4.0,10.0,94,0.00,,,0.16,308,Wunderground v.1.15,2013-06-05 15:37:00,
2013-06-05 10:39:00,62.8,61.0,29.92,NW,317,5.0,10.0,94,0.00,,,0.16,285,Wunderground v.1.15,2013-06-05 15:39:00,
2013-06-05 10:42:00,62.8,60.7,29.92,NNW,348,2.0,5.0,93,0.00,,,0.16,216,Wunderground v.1.15,2013-06-05 15:42:00,
2013-06-05 10:45:00,62.7,60.6,29.92,NW,317,7.0,7.0,93,0.00,,,0.16,160,Wunderground v.1.15,2013-06-05 15:45:00,
2013-06-05 10:46:00,62.7,60.6,29.92,NW,321,7.0,8.0,93,0.00,,,0.16,169,Wunderground v.1.15,2013-06-05 15:46:00,
2013-06-05 10:47:00,62.7,60.6,29.93,NW,313,7.0,11.0,93,0.00,,,0.16,174,Wunderground v.1.15,2013-06-05 15:47:00,
2013-06-05 10:50:00,62.6,60.5,29.93,NNW,327,5.0,5.0,93,0.00,,,0.16,199,Wunderground v.1.15,2013-06-05 15:50:00,
2013-06-05 10:51:00,62.6,60.5,29.93,NW,326,5.0,8.0,93,0.00,,,0.16,188,Wunderground v.1.15,2013-06-05 15:51:00,
2013-06-05 10:53:00,62.6,60.5,29.93,NW,319,10.0,10.0,93,0.00,,,0.16,181,Wunderground v.1.15,2013-06-05 15:53:00,
2013-06-05 10:55:00,62.7,60.6,29.93,NNW,348,2.0,10.0,93,0.00,,,0.16,176,Wunderground v.1.15,2013-06-05 15:55:00,
2013-06-05 10:56:00,62.7,60.6,29.93,NNW,333,3.0,10.0,93,0.00,,,0.16,234,Wunderground v.1.15,2013-06-05 15:56:00,
2013-06-05 10:58:00,62.7,60.6,29.93,North,355,3.0,10.0,93,0.00,,,0.16,234,Wunderground v.1.15,2013-06-05 15:58:00,
2013-06-05 11:00:00,62.8,60.7,29.92,NNW,332,3.0,4.0,93,0.00,,,0.16,197,Wunderground v.1.15,2013-06-05 16:00:00,
2013-06-05 11:02:00,62.8,60.7,29.93,NNW,342,5.0,5.0,93,0.00,,,0.16,211,Wunderground v.1.15,2013-06-05 16:02:00,
2013-06-05 11:03:00,62.7,60.3,29.93,NNW,333,7.0,7.0,92,0.00,,,0.16,211,Wunderground v.1.15,2013-06-05 16:03:00,
2013-06-05 11:05:00,62.7,60.3,29.93,NW,320,6.0,8.0,92,0.00,,,0.16,213,Wunderground v.1.15,2013-06-05 16:05:00,
2013-06-05 11:06:00,62.7,60.3,29.93,NNW,333,6.0,8.0,92,0.00,,,0.16,207,Wunderground v.1.15,2013-06-05 16:06:00,
2013-06-05 11:08:00,62.7,60.3,29.93,NW,315,0.0,8.0,92,0.00,,,0.16,195,Wunderground v.1.15,2013-06-05 16:08:00,
2013-06-05 11:09:00,62.8,60.4,29.93,NNW,344,2.0,8.0,92,0.00,,,0.16,195,Wunderground v.1.15,2013-06-05 16:09:00,
2013-06-05 11:10:00,62.8,60.4,29.93,NNW,333,4.0,6.0,92,0.00,,,0.16,281,Wunderground v.1.15,2013-06-05 16:10:00,
2013-06-05 11:12:00,62.9,60.5,29.93,NW,317,6.0,7.0,92,0.00,,,0.16,281,Wunderground v.1.15,2013-06-05 16:12:00,
2013-06-05 11:14:00,63.1,61.0,29.92,NW,311,2.0,7.0,93,0.00,,,0.16,308,Wunderground v.1.15,2013-06-05 16:14:00,
2013-06-05 11:18:00,63.2,60.5,29.92,North,355,3.0,7.0,91,0.00,,,0.16,394,Wunderground v.1.15,2013-06-05 16:18:00,
2013-06-05 11:19:00,63.4,60.7,29.92,NE,49,1.0,7.0,91,0.00,,,0.16,390,Wunderground v.1.15,2013-06-05 16:19:00,
2013-06-05 11:21:00,63.6,60.9,29.92,NW,318,0.0,3.0,91,0.00,,,0.16,267,Wunderground v.1.15,2013-06-05 16:21:00,
2013-06-05 11:23:00,63.6,60.6,29.92,NNE,32,1.0,3.0,90,0.00,,,0.16,262,Wunderground v.1.15,2013-06-05 16:23:00,
2013-06-05 11:24:00,63.6,60.6,29.92,NNW,336,0.0,3.0,90,0.00,,,0.16,281,Wunderground v.1.15,2013-06-05 16:24:00,
2013-06-05 11:25:00,63.6,60.6,29.92,NNW,338,0.0,3.0,90,0.00,,,0.16,294,Wunderground v.1.15,2013-06-05 16:25:00,
2013-06-05 11:27:00,63.7,60.7,29.92,ENE,67,0.0,5.0,90,0.00,,,0.16,360,Wunderground v.1.15,2013-06-05 16:27:00,
2013-06-05 11:29:00,63.7,61.0,29.92,NNW,327,0.0,5.0,91,0.00,,,0.16,404,Wunderground v.1.15,2013-06-05 16:29:00,
2013-06-05 11:31:00,63.9,60.9,29.92,NW,313,2.0,2.0,90,0.00,,,0.16,517,Wunderground v.1.15,2013-06-05 16:31:00,
2013-06-05 11:32:00,64.1,61.1,29.92,NNW,327,2.0,4.0,90,0.00,,,0.16,541,Wunderground v.1.15,2013-06-05 16:32:00,
2013-06-05 11:34:00,64.3,61.3,29.93,North,360,4.0,4.0,90,0.00,,,0.16,534,Wunderground v.1.15,2013-06-05 16:34:00,
2013-06-05 11:36:00,64.5,60.9,29.92,NNW,339,4.0,4.0,88,0.00,,,0.16,584,Wunderground v.1.15,2013-06-05 16:36:00,
2013-06-05 11:38:00,64.6,61.3,29.92,North,11,1.0,4.0,89,0.00,,,0.16,362,Wunderground v.1.15,2013-06-05 16:38:00,
2013-06-05 11:39:00,64.6,61.0,29.92,North,5,6.0,6.0,88,0.00,,,0.16,362,Wunderground v.1.15,2013-06-05 16:39:00,
2013-06-05 11:42:00,64.4,60.8,29.92,NW,325,3.0,7.0,88,0.00,,,0.16,309,Wunderground v.1.15,2013-06-05 16:42:00,
2013-06-05 11:44:00,64.3,60.3,29.92,NW,315,2.0,7.0,87,0.00,,,0.16,388,Wunderground v.1.15,2013-06-05 16:44:00,
2013-06-05 11:49:00,64.6,61.0,29.92,North,10,5.0,9.0,88,0.00,,,0.16,429,Wunderground v.1.15,2013-06-05 16:49:00,
2013-06-05 11:50:00,64.5,60.2,29.92,NW,313,3.0,3.0,86,0.00,,,0.16,448,Wunderground v.1.15,2013-06-05 16:50:00,
2013-06-05 11:52:00,64.5,60.2,29.92,NNE,13,3.0,3.0,86,0.00,,,0.16,448,Wunderground v.1.15,2013-06-05 16:52:00,
2013-06-05 11:54:00,64.5,60.2,29.92,NNE,17,1.0,4.0,86,0.00,,,0.16,403,Wunderground v.1.15,2013-06-05 16:54:00,
2013-06-05 11:55:00,64.5,60.5,29.92,NE,36,4.0,4.0,87,0.00,,,0.16,403,Wunderground v.1.15,2013-06-05 16:55:00,
2013-06-05 11:56:00,64.6,60.6,29.92,NNE,30,1.0,4.0,87,0.00,,,0.16,403,Wunderground v.1.15,2013-06-05 16:56:00,
2013-06-05 11:57:00,64.6,60.3,29.92,North,355,1.0,4.0,86,0.00,,,0.16,408,Wunderground v.1.15,2013-06-05 16:57:00,
2013-06-05 11:59:00,64.6,60.3,29.92,NNW,342,1.0,6.0,86,0.00,,,0.16,309,Wunderground v.1.15,2013-06-05 16:59:00,
2013-06-05 12:00:00,64.6,60.3,29.92,NW,306,2.0,2.0,86,0.00,,,0.16,309,Wunderground v.1.15,2013-06-05 17:00:00,
2013-06-05 12:01:00,64.6,60.3,29.92,NE,35,4.0,4.0,86,0.00,,,0.16,316,Wunderground v.1.15,2013-06-05 17:01:00,
2013-06-05 12:02:00,64.6,60.3,29.92,North,10,0.0,6.0,86,0.00,,,0.16,281,Wunderground v.1.15,2013-06-05 17:02:00,
2013-06-05 12:04:00,64.5,59.9,29.92,NNW,333,2.0,6.0,85,0.00,,,0.16,248,Wunderground v.1.15,2013-06-05 17:04:00,
2013-06-05 12:05:00,64.4,60.4,29.92,NW,323,0.0,6.0,87,0.00,,,0.16,199,Wunderground v.1.15,2013-06-05 17:05:00,
2013-06-05 12:07:00,64.3,60.3,29.92,NE,37,5.0,6.0,87,0.00,,,0.16,202,Wunderground v.1.15,2013-06-05 17:07:00,
2013-06-05 12:08:00,64.3,60.0,29.92,NW,326,1.0,6.0,86,0.00,,,0.16,193,Wunderground v.1.15,2013-06-05 17:08:00,
2013-06-05 12:09:00,64.2,60.2,29.92,NNE,19,2.0,6.0,87,0.00,,,0.16,195,Wunderground v.1.15,2013-06-05 17:09:00,
2013-06-05 12:12:00,64.1,60.5,29.92,NW,311,2.0,5.0,88,0.00,,,0.16,165,Wunderground v.1.15,2013-06-05 17:12:00,
2013-06-05 12:13:00,64.1,60.5,29.92,NNW,334,1.0,5.0,88,0.00,,,0.16,151,Wunderground v.1.15,2013-06-05 17:13:00,
2013-06-05 12:14:00,63.9,60.3,29.92,NNW,337,6.0,6.0,88,0.00,,,0.16,142,Wunderground v.1.15,2013-06-05 17:14:00,
2013-06-05 12:17:00,63.7,60.1,29.92,NW,309,4.0,6.0,88,0.00,,,0.16,200,Wunderground v.1.15,2013-06-05 17:17:00,
2013-06-05 12:18:00,63.6,60.0,29.92,NNW,330,1.0,6.0,88,0.00,,,0.16,193,Wunderground v.1.15,2013-06-05 17:18:00,
2013-06-05 12:19:00,63.6,60.3,29.92,NW,321,2.0,6.0,89,0.00,,,0.16,186,Wunderground v.1.15,2013-06-05 17:19:00,
2013-06-05 12:20:00,63.6,60.3,29.92,NNW,334,3.0,3.0,89,0.00,,,0.16,186,Wunderground v.1.15,2013-06-05 17:20:00,
2013-06-05 12:23:00,63.7,60.4,29.92,NNW,329,3.0,3.0,89,0.00,,,0.16,190,Wunderground v.1.15,2013-06-05 17:23:00,
2013-06-05 12:24:00,63.7,60.4,29.92,NNW,329,0.0,3.0,89,0.00,,,0.16,202,Wunderground v.1.15,2013-06-05 17:24:00,
2013-06-05 12:25:00,63.8,60.5,29.92,NNW,337,0.0,3.0,89,0.00,,,0.16,202,Wunderground v.1.15,2013-06-05 17:25:00,
2013-06-05 12:28:00,63.9,60.3,29.92,NNW,333,2.0,4.0,88,0.00,,,0.16,364,Wunderground v.1.15,2013-06-05 17:28:00,
2013-06-05 12:31:00,64.3,60.7,29.92,NW,317,0.0,3.0,88,0.00,,,0.16,436,Wunderground v.1.15,2013-06-05 17:31:00,
2013-06-05 12:32:00,64.7,60.7,29.92,NNE,25,1.0,4.0,87,0.00,,,0.16,436,Wunderground v.1.15,2013-06-05 17:32:00,
2013-06-05 12:34:00,65.4,61.1,29.92,NNW,329,0.0,4.0,86,0.00,,,0.16,577,Wunderground v.1.15,2013-06-05 17:34:00,
2013-06-05 12:36:00,65.7,61.4,29.92,North,5,3.0,4.0,86,0.00,,,0.16,619,Wunderground v.1.15,2013-06-05 17:36:00,
2013-06-05 12:38:00,66.1,61.8,29.92,NNW,328,2.0,4.0,86,0.00,,,0.16,619,Wunderground v.1.15,2013-06-05 17:38:00,
2013-06-05 12:40:00,66.3,61.7,29.92,North,350,2.0,3.0,85,0.00,,,0.16,332,Wunderground v.1.15,2013-06-05 17:40:00,
2013-06-05 12:42:00,66.3,62.0,29.92,NW,325,0.0,3.0,86,0.00,,,0.16,272,Wunderground v.1.15,2013-06-05 17:42:00,
2013-06-05 12:43:00,65.9,60.9,29.92,North,5,1.0,3.0,84,0.00,,,0.16,271,Wunderground v.1.15,2013-06-05 17:43:00,
2013-06-05 12:45:00,65.8,61.2,29.92,NW,313,8.0,8.0,85,0.00,,,0.16,329,Wunderground v.1.15,2013-06-05 17:45:00,
2013-06-05 12:47:00,65.6,61.0,29.92,NW,313,2.0,8.0,85,0.00,,,0.16,330,Wunderground v.1.15,2013-06-05 17:47:00,
2013-06-05 12:50:00,65.7,62.0,29.92,North,5,3.0,3.0,88,0.00,,,0.16,605,Wunderground v.1.15,2013-06-05 17:50:00,
2013-06-05 12:51:00,65.9,62.2,29.92,NW,321,4.0,4.0,88,0.00,,,0.16,675,Wunderground v.1.15,2013-06-05 17:51:00,
2013-06-05 12:52:00,66.0,61.4,29.92,NW,318,7.0,7.0,85,0.00,,,0.16,621,Wunderground v.1.15,2013-06-05 17:52:00,
2013-06-05 12:54:00,66.2,61.9,29.92,NW,304,5.0,8.0,86,0.00,,,0.16,621,Wunderground v.1.15,2013-06-05 17:54:00,
2013-06-05 12:55:00,66.2,61.6,29.92,NE,45,3.0,8.0,85,0.00,,,0.16,315,Wunderground v.1.15,2013-06-05 17:55:00,
2013-06-05 12:56:00,66.0,61.0,29.92,NNE,15,3.0,8.0,84,0.00,,,0.16,320,Wunderground v.1.15,2013-06-05 17:56:00,
2013-06-05 12:57:00,65.9,60.9,29.92,NNE,32,2.0,8.0,84,0.00,,,0.16,313,Wunderground v.1.15,2013-06-05 17:57:00,
2013-06-05 13:00:00,65.6,60.6,29.92,NE,38,2.0,3.0,84,0.00,,,0.16,345,Wunderground v.1.15,2013-06-05 18:00:00,
2013-06-05 13:01:00,65.6,60.6,29.92,North,360,0.0,3.0,84,0.00,,,0.16,330,Wunderground v.1.15,2013-06-05 18:01:00,
2013-06-05 13:04:00,65.6,61.0,29.92,NE,43,2.0,3.0,85,0.00,,,0.16,288,Wunderground v.1.15,2013-06-05 18:04:00,
2013-06-05 13:07:00,65.6,61.3,29.92,NW,319,5.0,6.0,86,0.00,,,0.16,244,Wunderground v.1.15,2013-06-05 18:07:00,
2013-06-05 13:08:00,65.5,61.2,29.92,NW,321,7.0,10.0,86,0.00,,,0.16,232,Wunderground v.1.15,2013-06-05 18:08:00,
2013-06-05 13:09:00,65.4,60.8,29.92,NW,320,5.0,12.0,85,0.00,,,0.16,234,Wunderground v.1.15,2013-06-05 18:09:00,
2013-06-05 13:11:00,65.2,60.6,29.92,NW,319,2.0,4.0,85,0.00,,,0.16,251,Wunderground v.1.15,2013-06-05 18:11:00,
2013-06-05 13:13:00,65.1,60.5,29.92,NW,322,5.0,7.0,85,0.00,,,0.16,244,Wunderground v.1.15,2013-06-05 18:13:00,
2013-06-05 13:14:00,65.0,60.7,29.92,NW,325,4.0,7.0,86,0.00,,,0.16,244,Wunderground v.1.15,2013-06-05 18:14:00,
2013-06-05 13:19:00,64.7,61.1,29.92,NW,324,6.0,8.0,88,0.00,,,0.16,345,Wunderground v.1.15,2013-06-05 18:19:00,
2013-06-05 13:21:00,64.9,61.3,29.92,NW,307,2.0,4.0,88,0.00,,,0.16,345,Wunderground v.1.15,2013-06-05 18:21:00,
2013-06-05 13:22:00,65.1,61.5,29.92,NW,310,7.0,7.0,88,0.00,,,0.16,446,Wunderground v.1.15,2013-06-05 18:22:00,
2013-06-05 13:23:00,65.1,61.5,29.92,NW,323,7.0,7.0,88,0.00,,,0.16,446,Wunderground v.1.15,2013-06-05 18:23:00,
2013-06-05 13:25:00,65.4,62.1,29.92,NW,314,6.0,7.0,89,0.00,,,0.16,529,Wunderground v.1.15,2013-06-05 18:25:00,
2013-06-05 13:26:00,65.5,62.2,29.92,NW,323,6.0,7.0,89,0.00,,,0.16,517,Wunderground v.1.15,2013-06-05 18:26:00,
2013-06-05 13:27:00,65.7,62.0,29.92,NW,309,7.0,7.0,88,0.00,,,0.16,612,Wunderground v.1.15,2013-06-05 18:27:00,
2013-06-05 13:29:00,65.8,62.1,29.92,NW,319,3.0,8.0,88,0.00,,,0.16,668,Wunderground v.1.15,2013-06-05 18:29:00,
2013-06-05 13:31:00,65.8,61.5,29.91,North,360,2.0,8.0,86,0.00,,,0.16,603,Wunderground v.1.15,2013-06-05 18:31:00,
2013-06-05 13:32:00,65.9,61.9,29.91,NNE,20,3.0,8.0,87,0.00,,,0.16,603,Wunderground v.1.15,2013-06-05 18:32:00,
2013-06-05 13:35:00,66.1,61.5,29.91,NW,313,2.0,8.0,85,0.00,,,0.16,304,Wunderground v.1.15,2013-06-05 18:35:00,
2013-06-05 13:36:00,66.1,61.5,29.91,North,355,4.0,8.0,85,0.00,,,0.16,304,Wunderground v.1.15,2013-06-05 18:36:00,
2013-06-05 13:37:00,65.9,60.9,29.91,NNW,338,2.0,8.0,84,0.00,,,0.16,304,Wunderground v.1.15,2013-06-05 18:37:00,
2013-06-05 13:38:00,65.8,61.2,29.91,North,360,1.0,8.0,85,0.00,,,0.16,288,Wunderground v.1.15,2013-06-05 18:38:00,
2013-06-05 13:41:00,65.7,61.1,29.92,NW,318,3.0,8.0,85,0.00,,,0.16,362,Wunderground v.1.15,2013-06-05 18:41:00,
2013-06-05 13:42:00,65.6,61.0,29.91,NW,324,3.0,8.0,85,0.00,,,0.16,316,Wunderground v.1.15,2013-06-05 18:42:00,
2013-06-05 13:43:00,65.6,61.3,29.91,NW,309,8.0,8.0,86,0.00,,,0.16,316,Wunderground v.1.15,2013-06-05 18:43:00,
2013-06-05 13:46:00,65.8,61.8,29.91,NW,315,6.0,8.0,87,0.00,,,0.16,278,Wunderground v.1.15,2013-06-05 18:46:00,
2013-06-05 13:47:00,65.7,61.4,29.91,NW,315,3.0,8.0,86,0.00,,,0.16,267,Wunderground v.1.15,2013-06-05 18:47:00,
2013-06-05 13:48:00,65.7,61.4,29.92,WNW,303,3.0,8.0,86,0.00,,,0.16,272,Wunderground v.1.15,2013-06-05 18:48:00,
2013-06-05 13:49:00,65.7,61.1,29.92,North,11,0.0,8.0,85,0.00,,,0.16,272,Wunderground v.1.15,2013-06-05 18:49:00,
2013-06-05 13:52:00,65.6,61.6,29.92,NNW,329,2.0,8.0,87,0.00,,,0.16,320,Wunderground v.1.15,2013-06-05 18:52:00,
2013-06-05 13:53:00,65.6,61.6,29.92,NNE,12,2.0,8.0,87,0.00,,,0.16,339,Wunderground v.1.15,2013-06-05 18:53:00,
2013-06-05 13:54:00,65.6,61.0,29.92,NW,319,4.0,8.0,85,0.00,,,0.16,373,Wunderground v.1.15,2013-06-05 18:54:00,
2013-06-05 13:56:00,65.7,60.7,29.91,NNE,21,1.0,8.0,84,0.00,,,0.16,381,Wunderground v.1.15,2013-06-05 18:56:00,
2013-06-05 13:57:00,65.7,60.7,29.91,NNE,20,1.0,8.0,84,0.00,,,0.16,381,Wunderground v.1.15,2013-06-05 18:57:00,
2013-06-05 13:58:00,65.8,60.8,29.91,NNW,327,0.0,8.0,84,0.00,,,0.16,348,Wunderground v.1.15,2013-06-05 18:58:00,
2013-06-05 14:00:00,65.9,60.6,29.91,NW,315,4.0,4.0,83,0.00,,,0.16,315,Wunderground v.1.15,2013-06-05 19:00:00,
2013-06-05 14:01:00,65.8,60.5,29.91,NW,313,5.0,10.0,83,0.00,,,0.16,288,Wunderground v.1.15,2013-06-05 19:01:00,
2013-06-05 14:02:00,65.9,60.6,29.91,NW,321,6.0,10.0,83,0.00,,,0.16,276,Wunderground v.1.15,2013-06-05 19:02:00,
2013-06-05 14:03:00,65.9,60.9,29.91,NW,319,4.0,10.0,84,0.00,,,0.16,276,Wunderground v.1.15,2013-06-05 19:03:00,
2013-06-05 14:05:00,65.8,60.5,29.91,NW,317,6.0,10.0,83,0.00,,,0.16,258,Wunderground v.1.15,2013-06-05 19:05:00,
2013-06-05 14:08:00,65.8,60.8,29.91,NW,305,6.0,10.0,84,0.00,,,0.16,216,Wunderground v.1.15,2013-06-05 19:08:00,
2013-06-05 14:10:00,65.7,60.7,29.91,NW,320,1.0,5.0,84,0.00,,,0.16,200,Wunderground v.1.15,2013-06-05 19:10:00,
2013-06-05 14:12:00,65.5,60.2,29.91,NW,313,5.0,5.0,83,0.00,,,0.16,204,Wunderground v.1.15,2013-06-05 19:12:00,
2013-06-05 14:13:00,65.5,60.5,29.91,NW,314,5.0,5.0,84,0.00,,,0.16,204,Wunderground v.1.15,2013-06-05 19:13:00,
2013-06-05 14:14:00,65.4,60.4,29.91,NW,320,7.0,7.0,84,0.00,,,0.16,211,Wunderground v.1.15,2013-06-05 19:14:00,
2013-06-05 14:16:00,65.4,60.4,29.91,WNW,302,8.0,8.0,84,0.00,,,0.16,264,Wunderground v.1.15,2013-06-05 19:16:00,
2013-06-05 14:18:00,65.6,60.6,29.91,WNW,297,4.0,8.0,84,0.00,,,0.16,373,Wunderground v.1.15,2013-06-05 19:18:00,
2013-06-05 14:19:00,65.7,61.1,29.91,NW,325,2.0,8.0,85,0.00,,,0.16,413,Wunderground v.1.15,2013-06-05 19:19:00,
2013-06-05 14:20:00,65.8,61.2,29.91,NW,319,1.0,5.0,85,0.00,,,0.16,413,Wunderground v.1.15,2013-06-05 19:20:00,
2013-06-05 14:21:00,66.0,61.4,29.91,NNW,338,1.0,5.0,85,0.00,,,0.16,411,Wunderground v.1.15,2013-06-05 19:21:00,
2013-06-05 14:24:00,66.3,60.6,29.91,NNE,12,3.0,5.0,82,0.00,,,0.16,445,Wunderground v.1.15,2013-06-05 19:24:00,
2013-06-05 14:25:00,66.5,60.8,29.90,NNE,12,0.0,5.0,82,0.00,,,0.16,406,Wunderground v.1.15,2013-06-05 19:25:00,
2013-06-05 14:26:00,66.5,60.8,29.90,ENE,71,3.0,5.0,82,0.00,,,0.16,399,Wunderground v.1.15,2013-06-05 19:26:00,
2013-06-05 14:27:00,66.6,61.3,29.90,NW,323,2.0,5.0,83,0.00,,,0.16,399,Wunderground v.1.15,2013-06-05 19:27:00,
2013-06-05 14:29:00,67.0,61.3,29.90,NW,319,3.0,5.0,82,0.00,,,0.16,422,Wunderground v.1.15,2013-06-05 19:29:00,
2013-06-05 14:31:00,67.1,61.1,29.90,NW,313,3.0,5.0,81,0.00,,,0.16,404,Wunderground v.1.15,2013-06-05 19:31:00,
2013-06-05 14:33:00,67.0,61.3,29.90,NE,36,0.0,5.0,82,0.00,,,0.16,404,Wunderground v.1.15,2013-06-05 19:33:00,
2013-06-05 14:34:00,66.9,60.5,29.90,NW,321,5.0,5.0,80,0.00,,,0.16,376,Wunderground v.1.15,2013-06-05 19:34:00,
2013-06-05 14:37:00,66.9,60.2,29.90,WNW,302,8.0,11.0,79,0.00,,,0.16,410,Wunderground v.1.15,2013-06-05 19:37:00,
2013-06-05 14:38:00,66.8,60.1,29.90,NNW,329,5.0,11.0,79,0.00,,,0.16,410,Wunderground v.1.15,2013-06-05 19:38:00,
2013-06-05 14:40:00,66.8,60.1,29.90,NW,319,7.0,7.0,79,0.00,,,0.16,427,Wunderground v.1.15,2013-06-05 19:40:00,
2013-06-05 14:41:00,66.8,60.4,29.90,NW,306,7.0,7.0,80,0.00,,,0.16,427,Wunderground v.1.15,2013-06-05 19:41:00,
2013-06-05 14:43:00,66.8,60.1,29.90,NW,316,6.0,9.0,79,0.00,,,0.16,476,Wunderground v.1.15,2013-06-05 19:43:00,
2013-06-05 14:47:00,67.0,60.3,29.90,NW,315,6.0,9.0,79,0.00,,,0.16,492,Wunderground v.1.15,2013-06-05 19:47:00,
2013-06-05 14:48:00,67.1,60.4,29.90,NW,313,8.0,9.0,79,0.00,,,0.16,492,Wunderground v.1.15,2013-06-05 19:48:00,
2013-06-05 14:49:00,67.1,60.0,29.90,WNW,298,8.0,9.0,78,0.00,,,0.16,499,Wunderground v.1.15,2013-06-05 19:49:00,
2013-06-05 14:50:00,67.1,60.0,29.90,NW,311,9.0,9.0,78,0.00,,,0.16,487,Wunderground v.1.15,2013-06-05 19:50:00,
2013-06-05 14:52:00,67.1,60.4,29.90,NW,317,3.0,9.0,79,0.00,,,0.16,424,Wunderground v.1.15,2013-06-05 19:52:00,
2013-06-05 14:53:00,67.0,59.9,29.90,NNW,336,3.0,9.0,78,0.00,,,0.16,411,Wunderground v.1.15,2013-06-05 19:53:00,
2013-06-05 14:54:00,67.0,60.3,29.89,NNW,328,0.0,9.0,79,0.00,,,0.16,436,Wunderground v.1.15,2013-06-05 19:54:00,
2013-06-05 14:55:00,66.8,60.1,29.89,NW,320,2.0,9.0,79,0.00,,,0.16,471,Wunderground v.1.15,2013-06-05 19:55:00,
2013-06-05 14:57:00,67.0,59.9,29.89,NW,322,4.0,9.0,78,0.00,,,0.16,438,Wunderground v.1.15,2013-06-05 19:57:00,
2013-06-05 14:59:00,67.1,60.7,29.89,NW,316,7.0,9.0,80,0.00,,,0.16,417,Wunderground v.1.15,2013-06-05 19:59:00,
2013-06-05 15:01:00,67.0,59.5,29.89,NNW,329,1.0,5.0,77,0.00,,,0.16,355,Wunderground v.1.15,2013-06-05 20:01:00,
2013-06-05 15:03:00,66.9,59.1,29.89,NW,319,0.0,5.0,76,0.00,,,0.16,327,Wunderground v.1.15,2013-06-05 20:03:00,
2013-06-05 15:04:00,66.8,59.7,29.89,NNE,13,2.0,5.0,78,0.00,,,0.16,327,Wunderground v.1.15,2013-06-05 20:04:00,
2013-06-05 15:06:00,66.9,59.8,29.89,WNW,300,5.0,6.0,78,0.00,,,0.16,318,Wunderground v.1.15,2013-06-05 20:06:00,
2013-06-05 15:08:00,66.8,59.0,29.89,NNE,18,0.0,6.0,76,0.00,,,0.16,313,Wunderground v.1.15,2013-06-05 20:08:00,
2013-06-05 15:10:00,66.7,59.3,29.89,NW,321,3.0,6.0,77,0.00,,,0.16,309,Wunderground v.1.15,2013-06-05 20:10:00,
2013-06-05 15:12:00,66.7,59.3,29.89,NW,311,1.0,2.0,77,0.00,,,0.16,269,Wunderground v.1.15,2013-06-05 20:12:00,
2013-06-05 15:13:00,66.7,58.9,29.89,NNW,346,1.0,2.0,76,0.00,,,0.16,220,Wunderground v.1.15,2013-06-05 20:13:00,
2013-06-05 15:15:00,66.5,58.3,29.89,NW,323,0.0,2.0,75,0.00,,,0.16,202,Wunderground v.1.15,2013-06-05 20:15:00,
2013-06-05 15:17:00,66.4,59.0,29.89,North,355,1.0,2.0,77,0.00,,,0.16,221,Wunderground v.1.15,2013-06-05 20:17:00,
2013-06-05 15:19:00,66.3,58.9,29.89,NW,314,3.0,4.0,77,0.00,,,0.16,248,Wunderground v.1.15,2013-06-05 20:19:00,
2013-06-05 15:20:00,66.3,59.9,29.89,NW,322,5.0,8.0,80,0.00,,,0.16,329,Wunderground v.1.15,2013-06-05 20:20:00,
2013-06-05 15:22:00,66.5,60.5,29.89,NNW,338,3.0,4.0,81,0.00,,,0.16,485,Wunderground v.1.15,2013-06-05 20:22:00,
2013-06-05 15:24:00,66.7,60.3,29.89,WNW,284,1.0,4.0,80,0.00,,,0.16,543,Wunderground v.1.15,2013-06-05 20:24:00,
2013-06-05 15:25:00,66.7,60.0,29.89,NW,321,4.0,4.0,79,0.00,,,0.16,543,Wunderground v.1.15,2013-06-05 20:25:00,
2013-06-05 15:28:00,66.9,60.5,29.89,NW,318,5.0,10.0,80,0.00,,,0.16,396,Wunderground v.1.15,2013-06-05 20:28:00,
2013-06-05 15:31:00,66.8,60.8,29.89,NW,317,8.0,8.0,81,0.00,,,0.16,387,Wunderground v.1.15,2013-06-05 20:31:00,
2013-06-05 15:33:00,66.7,60.0,29.89,NNW,332,2.0,8.0,79,0.00,,,0.16,355,Wunderground v.1.15,2013-06-05 20:33:00,
2013-06-05 15:35:00,66.5,59.4,29.89,NNW,331,4.0,8.0,78,0.00,,,0.16,355,Wunderground v.1.15,2013-06-05 20:35:00,
2013-06-05 15:37:00,66.4,59.3,29.88,WNW,302,7.0,8.0,78,0.00,,,0.16,360,Wunderground v.1.15,2013-06-05 20:37:00,
2013-06-05 15:38:00,66.3,59.2,29.88,NW,309,7.0,11.0,78,0.00,,,0.16,357,Wunderground v.1.15,2013-06-05 20:38:00,
2013-06-05 15:40:00,66.3,59.2,29.88,NW,309,6.0,11.0,78,0.00,,,0.16,359,Wunderground v.1.15,2013-06-05 20:40:00,
2013-06-05 15:42:00,66.4,60.0,29.88,NNW,329,4.0,6.0,80,0.00,,,0.16,350,Wunderground v.1.15,2013-06-05 20:42:00,
2013-06-05 15:43:00,66.4,60.0,29.88,WNW,302,7.0,7.0,80,0.00,,,0.16,350,Wunderground v.1.15,2013-06-05 20:43:00,
2013-06-05 15:47:00,66.4,59.7,29.88,NW,311,8.0,9.0,79,0.00,,,0.16,334,Wunderground v.1.15,2013-06-05 20:47:00,
2013-06-05 15:48:00,66.3,59.6,29.88,NW,304,7.0,9.0,79,0.00,,,0.16,348,Wunderground v.1.15,2013-06-05 20:48:00,
2013-06-05 15:49:00,66.3,59.6,29.88,NW,310,8.0,9.0,79,0.00,,,0.16,357,Wunderground v.1.15,2013-06-05 20:49:00,
2013-06-05 15:53:00,66.4,59.7,29.88,NNW,327,3.0,7.0,79,0.00,,,0.16,401,Wunderground v.1.15,2013-06-05 20:53:00,
2013-06-05 15:54:00,66.5,59.4,29.88,NNW,339,3.0,7.0,78,0.00,,,0.16,401,Wunderground v.1.15,2013-06-05 20:54:00,
2013-06-05 15:55:00,66.5,59.4,29.88,NNW,335,2.0,7.0,78,0.00,,,0.16,394,Wunderground v.1.15,2013-06-05 20:55:00,
2013-06-05 15:58:00,66.6,59.5,29.88,NNW,344,0.0,9.0,78,0.00,,,0.16,390,Wunderground v.1.15,2013-06-05 20:58:00,
2013-06-05 15:59:00,66.5,59.4,29.88,North,360,4.0,9.0,78,0.00,,,0.16,396,Wunderground v.1.15,2013-06-05 20:59:00,
2013-06-05 16:00:00,66.7,60.3,29.88,NW,319,4.0,5.0,80,0.00,,,0.16,396,Wunderground v.1.15,2013-06-05 21:00:00,
2013-06-05 16:01:00,66.7,60.3,29.88,NNW,331,4.0,5.0,80,0.00,,,0.16,388,Wunderground v.1.15,2013-06-05 21:01:00,
2013-06-05 16:04:00,66.7,60.0,29.88,NW,311,9.0,10.0,79,0.00,,,0.16,378,Wunderground v.1.15,2013-06-05 21:04:00,
2013-06-05 16:05:00,66.7,59.6,29.88,WNW,294,8.0,10.0,78,0.00,,,0.16,353,Wunderground v.1.15,2013-06-05 21:05:00,
2013-06-05 16:06:00,66.7,59.3,29.88,WNW,302,7.0,10.0,77,0.00,,,0.16,341,Wunderground v.1.15,2013-06-05 21:06:00,
2013-06-05 16:08:00,66.6,59.2,29.88,NW,314,8.0,10.0,77,0.00,,,0.16,330,Wunderground v.1.15,2013-06-05 21:08:00,
2013-06-05 16:09:00,66.5,59.1,29.88,NW,319,6.0,10.0,77,0.00,,,0.16,281,Wunderground v.1.15,2013-06-05 21:09:00,
2013-06-05 16:10:00,66.5,59.4,29.88,NW,321,5.0,7.0,78,0.00,,,0.16,267,Wunderground v.1.15,2013-06-05 21:10:00,
2013-06-05 16:11:00,66.4,59.7,29.88,NW,323,6.0,8.0,79,0.00,,,0.16,260,Wunderground v.1.15,2013-06-05 21:11:00,
2013-06-05 16:13:00,66.3,59.2,29.88,NW,315,7.0,8.0,78,0.00,,,0.16,257,Wunderground v.1.15,2013-06-05 21:13:00,
2013-06-05 16:14:00,66.3,59.2,29.88,NW,309,6.0,8.0,78,0.00,,,0.16,257,Wunderground v.1.15,2013-06-05 21:14:00,
2013-06-05 16:15:00,66.3,59.2,29.88,WNW,292,7.0,8.0,78,0.00,,,0.16,257,Wunderground v.1.15,2013-06-05 21:15:00,
2013-06-05 16:18:00,66.4,60.0,29.88,NW,319,5.0,9.0,80,0.00,,,0.16,329,Wunderground v.1.15,2013-06-05 21:18:00,
2013-06-05 16:19:00,66.4,59.7,29.88,NW,321,6.0,9.0,79,0.00,,,0.16,339,Wunderground v.1.15,2013-06-05 21:19:00,
2013-06-05 16:21:00,66.5,59.4,29.88,NW,320,5.0,7.0,78,0.00,,,0.16,341,Wunderground v.1.15,2013-06-05 21:21:00,
2013-06-05 16:24:00,66.5,59.1,29.88,NNW,335,3.0,7.0,77,0.00,,,0.16,330,Wunderground v.1.15,2013-06-05 21:24:00,
2013-06-05 16:25:00,66.5,59.4,29.87,NNW,333,2.0,7.0,78,0.00,,,0.16,330,Wunderground v.1.15,2013-06-05 21:25:00,
2013-06-05 16:27:00,66.6,58.8,29.87,NNW,328,0.0,8.0,76,0.00,,,0.16,403,Wunderground v.1.15,2013-06-05 21:27:00,
2013-06-05 16:29:00,66.7,58.9,29.87,NW,307,8.0,8.0,76,0.00,,,0.16,452,Wunderground v.1.15,2013-06-05 21:29:00,
2013-06-05 16:31:00,67.0,59.9,29.87,NW,311,6.0,6.0,78,0.00,,,0.16,547,Wunderground v.1.15,2013-06-05 21:31:00,
2013-06-05 16:33:00,67.4,59.9,29.87,NW,307,8.0,8.0,77,0.00,,,0.16,547,Wunderground v.1.15,2013-06-05 21:33:00,
2013-06-05 16:34:00,67.4,59.2,29.87,WNW,301,4.0,8.0,75,0.00,,,0.16,483,Wunderground v.1.15,2013-06-05 21:34:00,
2013-06-05 16:35:00,67.5,59.3,29.87,WNW,298,7.0,8.0,75,0.00,,,0.16,499,Wunderground v.1.15,2013-06-05 21:35:00,
2013-06-05 16:36:00,67.5,58.5,29.87,WNW,302,5.0,8.0,73,0.00,,,0.16,499,Wunderground v.1.15,2013-06-05 21:36:00,
2013-06-05 16:38:00,67.5,59.7,29.87,NW,323,5.0,8.0,76,0.00,,,0.16,418,Wunderground v.1.15,2013-06-05 21:38:00,
2013-06-05 16:39:00,67.5,59.3,29.87,NW,319,6.0,8.0,75,0.00,,,0.16,418,Wunderground v.1.15,2013-06-05 21:39:00,
2013-06-05 16:43:00,67.4,58.8,29.87,NNW,343,1.0,6.0,74,0.00,,,0.16,388,Wunderground v.1.15,2013-06-05 21:43:00,
2013-06-05 16:44:00,67.4,58.1,29.87,NW,319,6.0,10.0,72,0.00,,,0.16,373,Wunderground v.1.15,2013-06-05 21:44:00,
2013-06-05 16:45:00,67.4,58.4,29.87,NW,317,6.0,10.0,73,0.00,,,0.16,373,Wunderground v.1.15,2013-06-05 21:45:00,
2013-06-05 16:46:00,67.5,59.3,29.87,NW,319,5.0,10.0,75,0.00,,,0.16,360,Wunderground v.1.15,2013-06-05 21:46:00,
2013-06-05 16:50:00,67.4,58.8,29.87,NW,319,5.0,10.0,74,0.00,,,0.16,381,Wunderground v.1.15,2013-06-05 21:50:00,
2013-06-05 16:51:00,67.4,58.4,29.87,NW,320,5.0,5.0,73,0.00,,,0.16,415,Wunderground v.1.15,2013-06-05 21:51:00,
2013-06-05 16:52:00,67.4,58.4,29.87,NW,304,5.0,6.0,73,0.00,,,0.16,415,Wunderground v.1.15,2013-06-05 21:52:00,
2013-06-05 16:55:00,67.6,58.2,29.87,WNW,303,5.0,12.0,72,0.00,,,0.16,343,Wunderground v.1.15,2013-06-05 21:55:00,
2013-06-05 16:56:00,67.6,58.6,29.87,NW,314,5.0,12.0,73,0.00,,,0.16,311,Wunderground v.1.15,2013-06-05 21:56:00,
2013-06-05 16:57:00,67.6,58.2,29.87,WNW,302,5.0,12.0,72,0.00,,,0.16,311,Wunderground v.1.15,2013-06-05 21:57:00,
2013-06-05 16:58:00,67.5,58.5,29.87,NW,315,5.0,12.0,73,0.00,,,0.16,311,Wunderground v.1.15,2013-06-05 21:58:00,
2013-06-05 17:01:00,67.4,58.1,29.87,WNW,297,5.0,10.0,72,0.00,,,0.16,229,Wunderground v.1.15,2013-06-05 22:01:00,
2013-06-05 17:02:00,67.3,57.6,29.87,NW,318,7.0,10.0,71,0.00,,,0.16,214,Wunderground v.1.15,2013-06-05 22:02:00,
2013-06-05 17:03:00,67.3,58.0,29.87,NW,316,6.0,10.0,72,0.00,,,0.16,214,Wunderground v.1.15,2013-06-05 22:03:00,
2013-06-05 17:07:00,67.0,58.4,29.87,NW,311,6.0,10.0,74,0.00,,,0.16,227,Wunderground v.1.15,2013-06-05 22:07:00,
2013-06-05 17:08:00,67.0,57.3,29.87,NW,312,4.0,10.0,71,0.00,,,0.16,250,Wunderground v.1.15,2013-06-05 22:08:00,
2013-06-05 17:09:00,67.0,57.7,29.87,NW,313,3.0,10.0,72,0.00,,,0.16,250,Wunderground v.1.15,2013-06-05 22:09:00,
2013-06-05 17:12:00,67.4,59.2,29.87,NW,312,6.0,6.0,75,0.00,,,0.16,464,Wunderground v.1.15,2013-06-05 22:12:00,
2013-06-05 17:14:00,67.7,60.2,29.87,WNW,294,9.0,9.0,77,0.00,,,0.16,464,Wunderground v.1.15,2013-06-05 22:14:00,
2013-06-05 17:15:00,67.8,59.2,29.87,WNW,302,8.0,9.0,74,0.00,,,0.16,325,Wunderground v.1.15,2013-06-05 22:15:00,
2013-06-05 17:19:00,67.7,58.7,29.87,NW,324,5.0,9.0,73,0.00,,,0.16,306,Wunderground v.1.15,2013-06-05 22:19:00,
2013-06-05 17:21:00,67.6,59.0,29.87,NW,305,6.0,10.0,74,0.00,,,0.16,250,Wunderground v.1.15,2013-06-05 22:21:00,
2013-06-05 17:22:00,67.5,58.5,29.87,WNW,303,8.0,10.0,73,0.00,,,0.16,302,Wunderground v.1.15,2013-06-05 22:22:00,
2013-06-05 17:24:00,67.6,59.4,29.87,WNW,296,9.0,10.0,75,0.00,,,0.16,302,Wunderground v.1.15,2013-06-05 22:24:00,
2013-06-05 17:25:00,67.6,58.6,29.86,NW,316,9.0,10.0,73,0.00,,,0.16,513,Wunderground v.1.15,2013-06-05 22:25:00,
2013-06-05 17:26:00,67.7,58.7,29.86,NW,307,8.0,10.0,73,0.00,,,0.16,408,Wunderground v.1.15,2013-06-05 22:26:00,
2013-06-05 17:27:00,67.7,58.3,29.86,NW,312,7.0,10.0,72,0.00,,,0.16,408,Wunderground v.1.15,2013-06-05 22:27:00,
2013-06-05 17:29:00,67.9,59.3,29.87,NW,314,6.0,10.0,74,0.00,,,0.16,547,Wunderground v.1.15,2013-06-05 22:29:00,
2013-06-05 17:30:00,67.9,59.3,29.87,NW,304,5.0,8.0,74,0.00,,,0.16,547,Wunderground v.1.15,2013-06-05 22:30:00,
2013-06-05 17:34:00,67.8,58.1,29.86,WNW,297,6.0,8.0,71,0.00,,,0.16,325,Wunderground v.1.15,2013-06-05 22:34:00,
2013-06-05 17:35:00,67.8,58.1,29.86,NW,311,7.0,8.0,71,0.00,,,0.16,325,Wunderground v.1.15,2013-06-05 22:35:00,
2013-06-05 17:36:00,67.8,58.8,29.86,NW,312,4.0,8.0,73,0.00,,,0.16,325,Wunderground v.1.15,2013-06-05 22:36:00,
2013-06-05 17:40:00,67.9,59.3,29.86,NW,311,6.0,6.0,74,0.00,,,0.16,573,Wunderground v.1.15,2013-06-05 22:40:00,
2013-06-05 17:41:00,67.9,59.3,29.86,NW,308,7.0,7.0,74,0.00,,,0.16,573,Wunderground v.1.15,2013-06-05 22:41:00,
2013-06-05 17:42:00,68.1,58.7,29.86,NW,307,7.0,7.0,72,0.00,,,0.16,573,Wunderground v.1.15,2013-06-05 22:42:00,
2013-06-05 17:43:00,68.3,58.9,29.86,WNW,297,7.0,8.0,72,0.00,,,0.16,587,Wunderground v.1.15,2013-06-05 22:43:00,
2013-06-05 17:46:00,68.6,59.2,29.86,NW,319,6.0,8.0,72,0.00,,,0.16,557,Wunderground v.1.15,2013-06-05 22:46:00,
2013-06-05 17:47:00,68.6,59.2,29.86,NW,310,6.0,8.0,72,0.00,,,0.16,557,Wunderground v.1.15,2013-06-05 22:47:00,
2013-06-05 17:48:00,68.5,59.1,29.86,NW,311,6.0,8.0,72,0.00,,,0.16,557,Wunderground v.1.15,2013-06-05 22:48:00,
2013-06-05 17:52:00,68.0,58.2,29.86,WNW,287,5.0,7.0,71,0.00,,,0.16,132,Wunderground v.1.15,2013-06-05 22:52:00,
2013-06-05 17:53:00,67.8,57.7,29.86,WNW,287,4.0,7.0,70,0.00,,,0.16,132,Wunderground v.1.15,2013-06-05 22:53:00,
2013-06-05 17:54:00,67.7,58.7,29.86,NW,314,6.0,7.0,73,0.00,,,0.16,132,Wunderground v.1.15,2013-06-05 22:54:00,
2013-06-05 17:58:00,67.4,58.1,29.85,NW,318,3.0,8.0,72,0.00,,,0.16,114,Wunderground v.1.15,2013-06-05 22:58:00,
2013-06-05 17:59:00,67.4,58.1,29.85,NW,318,2.0,8.0,72,0.00,,,0.16,113,Wunderground v.1.15,2013-06-05 22:59:00,
2013-06-05 18:00:00,67.2,58.6,29.85,NW,319,4.0,4.0,74,0.00,,,0.16,113,Wunderground v.1.15,2013-06-05 23:00:00,
2013-06-05 18:03:00,67.1,57.8,29.85,NW,313,4.0,4.0,72,0.00,,,0.16,135,Wunderground v.1.15,2013-06-05 23:03:00,
2013-06-05 18:04:00,67.1,57.8,29.85,NNE,15,1.0,4.0,72,0.00,,,0.16,135,Wunderground v.1.15,2013-06-05 23:04:00,
2013-06-05 18:05:00,67.2,57.9,29.85,NNE,20,3.0,4.0,72,0.00,,,0.16,135,Wunderground v.1.15,2013-06-05 23:05:00,
2013-06-05 18:06:00,67.2,57.9,29.85,NW,309,3.0,4.0,72,0.00,,,0.16,160,Wunderground v.1.15,2013-06-05 23:06:00,
2013-06-05 18:09:00,67.4,59.2,29.85,NW,315,4.0,5.0,75,0.00,,,0.16,248,Wunderground v.1.15,2013-06-05 23:09:00,
2013-06-05 18:10:00,67.4,59.6,29.86,NW,318,7.0,7.0,76,0.00,,,0.16,320,Wunderground v.1.15,2013-06-05 23:10:00,
2013-06-05 18:12:00,67.6,59.0,29.85,NW,319,0.0,8.0,74,0.00,,,0.16,246,Wunderground v.1.15,2013-06-05 23:12:00,
2013-06-05 18:14:00,68.2,59.6,29.85,NNW,338,2.0,8.0,74,0.00,,,0.16,563,Wunderground v.1.15,2013-06-05 23:14:00,
2013-06-05 18:15:00,68.3,59.7,29.85,NNW,346,3.0,8.0,74,0.00,,,0.16,555,Wunderground v.1.15,2013-06-05 23:15:00,
2013-06-05 18:16:00,68.8,59.8,29.85,NW,315,5.0,8.0,73,0.00,,,0.16,545,Wunderground v.1.15,2013-06-05 23:16:00,
2013-06-05 18:17:00,68.9,59.9,29.85,NW,304,8.0,8.0,73,0.00,,,0.16,545,Wunderground v.1.15,2013-06-05 23:17:00,
2013-06-05 18:18:00,69.1,58.9,29.85,NW,313,3.0,8.0,70,0.00,,,0.16,543,Wunderground v.1.15,2013-06-05 23:18:00,
2013-06-05 18:19:00,69.3,58.7,29.85,NW,321,4.0,8.0,69,0.00,,,0.16,522,Wunderground v.1.15,2013-06-05 23:19:00,
2013-06-05 18:20:00,69.4,59.6,29.85,NNW,347,3.0,5.0,71,0.00,,,0.16,483,Wunderground v.1.15,2013-06-05 23:20:00,
2013-06-05 18:22:00,69.5,59.3,29.85,NW,317,7.0,7.0,70,0.00,,,0.16,483,Wunderground v.1.15,2013-06-05 23:22:00,
2013-06-05 18:23:00,69.6,59.4,29.85,NW,304,6.0,7.0,70,0.00,,,0.16,244,Wunderground v.1.15,2013-06-05 23:23:00,
2013-06-05 18:26:00,69.1,58.5,29.85,NW,318,5.0,7.0,69,0.00,,,0.16,174,Wunderground v.1.15,2013-06-05 23:26:00,
2013-06-05 18:27:00,69.1,59.7,29.85,NW,315,0.0,7.0,72,0.00,,,0.16,490,Wunderground v.1.15,2013-06-05 23:27:00,
2013-06-05 18:28:00,69.1,59.7,29.86,NNW,331,1.0,7.0,72,0.00,,,0.16,487,Wunderground v.1.15,2013-06-05 23:28:00,
2013-06-05 18:31:00,69.4,58.8,29.85,NW,321,3.0,6.0,69,0.00,,,0.16,464,Wunderground v.1.15,2013-06-05 23:31:00,
2013-06-05 18:32:00,69.2,58.6,29.85,NW,317,4.0,6.0,69,0.00,,,0.16,406,Wunderground v.1.15,2013-06-05 23:32:00,
2013-06-05 18:33:00,69.2,58.6,29.85,NW,316,5.0,6.0,69,0.00,,,0.16,406,Wunderground v.1.15,2013-06-05 23:33:00,
2013-06-05 18:34:00,69.2,58.6,29.85,NW,326,0.0,6.0,69,0.00,,,0.16,401,Wunderground v.1.15,2013-06-05 23:34:00,
2013-06-05 18:36:00,69.3,58.7,29.85,NW,324,7.0,7.0,69,0.00,,,0.16,388,Wunderground v.1.15,2013-06-05 23:36:00,
2013-06-05 18:38:00,69.4,58.0,29.85,West,278,8.0,8.0,67,0.00,,,0.16,390,Wunderground v.1.15,2013-06-05 23:38:00,
2013-06-05 18:39:00,69.4,58.8,29.85,WNW,291,8.0,10.0,69,0.00,,,0.16,401,Wunderground v.1.15,2013-06-05 23:39:00,
2013-06-05 18:41:00,69.4,58.4,29.85,NW,321,8.0,9.0,68,0.00,,,0.16,415,Wunderground v.1.15,2013-06-05 23:41:00,
2013-06-05 18:43:00,69.6,59.4,29.85,North,350,4.0,9.0,70,0.00,,,0.16,427,Wunderground v.1.15,2013-06-05 23:43:00,
2013-06-05 18:44:00,69.6,58.2,29.85,NW,317,7.0,9.0,67,0.00,,,0.16,418,Wunderground v.1.15,2013-06-05 23:44:00,
2013-06-05 18:45:00,69.6,58.2,29.85,NW,314,7.0,9.0,67,0.00,,,0.16,406,Wunderground v.1.15,2013-06-05 23:45:00,
2013-06-05 18:47:00,69.6,59.0,29.85,NW,315,6.0,9.0,69,0.00,,,0.16,406,Wunderground v.1.15,2013-06-05 23:47:00,
2013-06-05 18:48:00,69.6,59.0,29.85,NW,312,6.0,9.0,69,0.00,,,0.16,406,Wunderground v.1.15,2013-06-05 23:48:00,
2013-06-05 18:50:00,69.3,57.5,29.85,NNW,327,7.0,7.0,66,0.00,,,0.16,107,Wunderground v.1.15,2013-06-05 23:50:00,
2013-06-05 18:52:00,68.9,57.5,29.85,NW,313,8.0,9.0,67,0.00,,,0.16,141,Wunderground v.1.15,2013-06-05 23:52:00,
2013-06-05 18:53:00,68.8,58.2,29.85,NW,314,8.0,10.0,69,0.00,,,0.16,388,Wunderground v.1.15,2013-06-05 23:53:00,
2013-06-05 18:56:00,68.9,58.3,29.85,NW,310,4.0,10.0,69,0.00,,,0.16,380,Wunderground v.1.15,2013-06-05 23:56:00,
2013-06-05 18:58:00,68.9,58.7,29.85,NW,326,5.0,10.0,70,0.00,,,0.16,318,Wunderground v.1.15,2013-06-05 23:58:00,
2013-06-05 18:59:00,68.9,57.9,29.85,North,349,4.0,10.0,68,0.00,,,0.16,329,Wunderground v.1.15,2013-06-05 23:59:00,
2013-06-05 19:01:00,69.0,58.4,29.86,WNW,302,7.0,7.0,69,0.00,,,0.16,306,Wunderground v.1.15,2013-06-06 00:01:00,
2013-06-05 19:02:00,69.0,58.4,29.86,NW,319,10.0,10.0,69,0.00,,,0.16,301,Wunderground v.1.15,2013-06-06 00:02:00,
2013-06-05 19:03:00,69.1,58.5,29.85,NNW,327,6.0,10.0,69,0.00,,,0.16,295,Wunderground v.1.15,2013-06-06 00:03:00,
2013-06-05 19:04:00,69.1,58.9,29.86,NNW,335,2.0,10.0,70,0.00,,,0.16,290,Wunderground v.1.15,2013-06-06 00:04:00,
2013-06-05 19:08:00,68.9,58.3,29.86,NNW,331,8.0,10.0,69,0.00,,,0.16,255,Wunderground v.1.15,2013-06-06 00:08:00,
2013-06-05 19:09:00,68.8,57.4,29.86,NNW,332,7.0,10.0,67,0.00,,,0.16,255,Wunderground v.1.15,2013-06-06 00:09:00,
2013-06-05 19:10:00,68.5,57.5,29.86,NNW,330,2.0,5.0,68,0.00,,,0.16,72,Wunderground v.1.15,2013-06-06 00:10:00,
2013-06-05 19:11:00,68.4,57.8,29.86,WNW,302,3.0,5.0,69,0.00,,,0.16,72,Wunderground v.1.15,2013-06-06 00:11:00,
2013-06-05 19:14:00,67.7,56.8,29.86,North,351,4.0,5.0,68,0.00,,,0.16,62,Wunderground v.1.15,2013-06-06 00:14:00,
2013-06-05 19:16:00,67.1,56.6,29.86,NW,325,2.0,5.0,69,0.00,,,0.16,63,Wunderground v.1.15,2013-06-06 00:16:00,
2013-06-05 19:17:00,67.0,56.5,29.86,NW,320,4.0,5.0,69,0.00,,,0.16,63,Wunderground v.1.15,2013-06-06 00:17:00,
2013-06-05 19:20:00,66.7,57.8,29.86,NW,312,7.0,7.0,73,0.00,,,0.16,67,Wunderground v.1.15,2013-06-06 00:20:00,
2013-06-05 19:22:00,66.7,57.4,29.86,NW,310,7.0,10.0,72,0.00,,,0.16,76,Wunderground v.1.15,2013-06-06 00:22:00,
2013-06-05 19:23:00,66.6,57.3,29.86,NW,321,9.0,10.0,72,0.00,,,0.16,81,Wunderground v.1.15,2013-06-06 00:23:00,
2013-06-05 19:26:00,66.5,57.2,29.86,NNW,329,8.0,11.0,72,0.00,,,0.16,81,Wunderground v.1.15,2013-06-06 00:26:00,
2013-06-05 19:27:00,66.5,58.0,29.86,NW,323,3.0,11.0,74,0.00,,,0.16,83,Wunderground v.1.15,2013-06-06 00:27:00,
2013-06-05 19:28:00,66.5,58.0,29.86,NW,307,7.0,11.0,74,0.00,,,0.16,81,Wunderground v.1.15,2013-06-06 00:28:00,
2013-06-05 19:33:00,66.3,57.8,29.86,NW,309,5.0,7.0,74,0.00,,,0.16,81,Wunderground v.1.15,2013-06-06 00:33:00,
2013-06-05 19:34:00,66.3,58.5,29.86,NW,318,4.0,7.0,76,0.00,,,0.16,84,Wunderground v.1.15,2013-06-06 00:34:00,
2013-06-05 19:38:00,66.3,57.0,29.86,NW,318,9.0,10.0,72,0.00,,,0.16,93,Wunderground v.1.15,2013-06-06 00:38:00,
2013-06-05 19:40:00,66.3,57.4,29.86,NW,320,7.0,8.0,73,0.00,,,0.16,149,Wunderground v.1.15,2013-06-06 00:40:00,
2013-06-05 19:41:00,66.3,57.4,29.86,NW,317,6.0,8.0,73,0.00,,,0.16,167,Wunderground v.1.15,2013-06-06 00:41:00,
2013-06-05 19:43:00,66.4,57.5,29.87,NW,321,5.0,9.0,73,0.00,,,0.16,81,Wunderground v.1.15,2013-06-06 00:43:00,
2013-06-05 19:44:00,66.4,57.5,29.87,NW,315,5.0,9.0,73,0.00,,,0.16,81,Wunderground v.1.15,2013-06-06 00:44:00,
2013-06-05 19:46:00,66.3,57.0,29.86,NW,313,7.0,9.0,72,0.00,,,0.16,79,Wunderground v.1.15,2013-06-06 00:46:00,
2013-06-05 19:47:00,66.3,57.0,29.86,NW,313,8.0,9.0,72,0.00,,,0.16,79,Wunderground v.1.15,2013-06-06 00:47:00,
2013-06-05 19:50:00,66.3,57.0,29.86,NW,324,6.0,7.0,72,0.00,,,0.16,60,Wunderground v.1.15,2013-06-06 00:50:00,
2013-06-05 19:52:00,66.3,57.0,29.86,NW,319,6.0,9.0,72,0.00,,,0.16,60,Wunderground v.1.15,2013-06-06 00:52:00,
2013-06-05 19:53:00,66.2,57.3,29.86,NW,317,4.0,9.0,73,0.00,,,0.16,56,Wunderground v.1.15,2013-06-06 00:53:00,
2013-06-05 19:55:00,66.0,57.5,29.86,NW,312,5.0,9.0,74,0.00,,,0.16,51,Wunderground v.1.15,2013-06-06 00:55:00,
2013-06-05 19:56:00,65.9,57.4,29.86,NW,318,3.0,9.0,74,0.00,,,0.16,51,Wunderground v.1.15,2013-06-06 00:56:00,
2013-06-05 19:57:00,65.8,57.3,29.87,NW,321,5.0,9.0,74,0.00,,,0.16,44,Wunderground v.1.15,2013-06-06 00:57:00,
2013-06-05 19:59:00,65.6,57.5,29.87,NNW,327,3.0,9.0,75,0.00,,,0.16,44,Wunderground v.1.15,2013-06-06 00:59:00,
2013-06-05 20:02:00,65.3,57.2,29.87,NNW,331,6.0,7.0,75,0.00,,,0.16,42,Wunderground v.1.15,2013-06-06 01:02:00,
2013-06-05 20:04:00,65.2,57.1,29.87,NNW,343,5.0,7.0,75,0.00,,,0.16,63,Wunderground v.1.15,2013-06-06 01:04:00,
2013-06-05 20:07:00,65.1,56.6,29.87,NNW,329,2.0,7.0,74,0.00,,,0.16,39,Wunderground v.1.15,2013-06-06 01:07:00,
2013-06-05 20:08:00,65.0,56.5,29.87,NNW,330,3.0,7.0,74,0.00,,,0.16,42,Wunderground v.1.15,2013-06-06 01:08:00,
2013-06-05 20:11:00,64.8,56.3,29.87,NW,319,0.0,3.0,74,0.00,,,0.16,39,Wunderground v.1.15,2013-06-06 01:11:00,
2013-06-05 20:12:00,64.7,55.8,29.87,NNW,327,2.0,4.0,73,0.00,,,0.16,33,Wunderground v.1.15,2013-06-06 01:12:00,
2013-06-05 20:13:00,64.7,55.5,29.87,NW,322,4.0,4.0,72,0.00,,,0.16,32,Wunderground v.1.15,2013-06-06 01:13:00,
2013-06-05 20:14:00,64.7,55.5,29.87,NW,322,1.0,4.0,72,0.00,,,0.16,32,Wunderground v.1.15,2013-06-06 01:14:00,
2013-06-05 20:16:00,64.5,56.0,29.87,NNW,332,0.0,4.0,74,0.00,,,0.16,30,Wunderground v.1.15,2013-06-06 01:16:00,
2013-06-05 20:19:00,64.3,55.5,29.87,NW,311,0.0,4.0,73,0.00,,,0.16,23,Wunderground v.1.15,2013-06-06 01:19:00,
2013-06-05 20:20:00,64.1,54.9,29.87,NNW,336,0.0,1.0,72,0.00,,,0.16,21,Wunderground v.1.15,2013-06-06 01:20:00,
2013-06-05 20:21:00,64.1,54.9,29.87,NW,323,3.0,3.0,72,0.00,,,0.16,21,Wunderground v.1.15,2013-06-06 01:21:00,
2013-06-05 20:22:00,64.1,54.9,29.87,NW,322,0.0,3.0,72,0.00,,,0.16,21,Wunderground v.1.15,2013-06-06 01:22:00,
2013-06-05 20:24:00,64.0,55.5,29.87,NW,320,1.0,3.0,74,0.00,,,0.16,21,Wunderground v.1.15,2013-06-06 01:24:00,
2013-06-05 20:26:00,63.9,55.4,29.87,NW,319,0.0,3.0,74,0.00,,,0.16,21,Wunderground v.1.15,2013-06-06 01:26:00,
2013-06-05 20:27:00,63.8,55.0,29.87,NNW,331,0.0,6.0,73,0.00,,,0.16,19,Wunderground v.1.15,2013-06-06 01:27:00,
2013-06-05 20:29:00,63.7,54.9,29.87,NW,325,4.0,6.0,73,0.00,,,0.16,18,Wunderground v.1.15,2013-06-06 01:29:00,
2013-06-05 20:32:00,63.7,54.9,29.87,NNW,329,1.0,6.0,73,0.00,,,0.16,14,Wunderground v.1.15,2013-06-06 01:32:00,
2013-06-05 20:34:00,63.7,55.3,29.87,NNW,340,0.0,6.0,74,0.00,,,0.16,14,Wunderground v.1.15,2013-06-06 01:34:00,
2013-06-05 20:36:00,63.6,55.2,29.87,NW,316,0.0,6.0,74,0.00,,,0.16,12,Wunderground v.1.15,2013-06-06 01:36:00,
2013-06-05 20:38:00,63.4,55.0,29.87,NW,319,0.0,6.0,74,0.00,,,0.16,9,Wunderground v.1.15,2013-06-06 01:38:00,
2013-06-05 20:40:00,63.2,54.8,29.87,NW,326,0.0,1.0,74,0.00,,,0.16,7,Wunderground v.1.15,2013-06-06 01:40:00,
2013-06-05 20:41:00,63.2,54.8,29.87,NW,323,1.0,1.0,74,0.00,,,0.16,7,Wunderground v.1.15,2013-06-06 01:41:00,
2013-06-05 20:44:00,63.0,54.9,29.87,NNW,329,0.0,1.0,75,0.00,,,0.16,5,Wunderground v.1.15,2013-06-06 01:44:00,
2013-06-05 20:46:00,62.9,54.9,29.87,NW,317,0.0,2.0,75,0.00,,,0.16,5,Wunderground v.1.15,2013-06-06 01:46:00,
2013-06-05 20:47:00,62.8,54.8,29.87,NW,317,0.0,2.0,75,0.00,,,0.16,5,Wunderground v.1.15,2013-06-06 01:47:00,
2013-06-05 20:49:00,62.7,54.7,29.87,NNW,342,5.0,5.0,75,0.00,,,0.16,5,Wunderground v.1.15,2013-06-06 01:49:00,
2013-06-05 20:51:00,62.6,54.9,29.88,NW,308,1.0,4.0,76,0.00,,,0.16,0,Wunderground v.1.15,2013-06-06 01:51:00,
2013-06-05 20:52:00,62.6,54.6,29.88,NNW,342,0.0,4.0,75,0.00,,,0.16,0,Wunderground v.1.15,2013-06-06 01:52:00,
2013-06-05 20:53:00,62.6,54.6,29.88,NNW,334,0.0,4.0,75,0.00,,,0.16,0,Wunderground v.1.15,2013-06-06 01:53:00,
2013-06-05 20:54:00,62.5,54.5,29.88,NNW,333,0.0,4.0,75,0.00,,,0.16,0,Wunderground v.1.15,2013-06-06 01:54:00,
2013-06-05 20:57:00,62.4,54.4,29.88,NW,324,1.0,4.0,75,0.00,,,0.16,0,Wunderground v.1.15,2013-06-06 01:57:00,
2013-06-05 20:58:00,62.3,54.3,29.88,NW,323,3.0,4.0,75,0.00,,,0.16,0,Wunderground v.1.15,2013-06-06 01:58:00,
2013-06-05 20:59:00,62.3,55.0,29.88,NW,317,1.0,4.0,77,0.00,,,0.16,0,Wunderground v.1.15,2013-06-06 01:59:00,
2013-06-05 21:00:00,62.3,54.6,29.88,NW,322,2.0,3.0,76,0.00,,,0.16,0,Wunderground v.1.15,2013-06-06 02:00:00,
2013-06-05 21:04:00,62.0,54.7,29.88,NNW,331,0.0,3.0,77,0.00,,,0.16,0,Wunderground v.1.15,2013-06-06 02:04:00,
2013-06-05 21:05:00,62.0,54.7,29.88,NNW,331,0.0,3.0,77,0.00,,,0.16,0,Wunderground v.1.15,2013-06-06 02:05:00,
2013-06-05 21:07:00,61.8,54.5,29.88,NNW,330,0.0,3.0,77,0.00,,,0.16,0,Wunderground v.1.15,2013-06-06 02:07:00,
2013-06-05 21:10:00,61.8,54.5,29.88,NW,304,0.0,0.0,77,0.00,,,0.16,0,Wunderground v.1.15,2013-06-06 02:10:00,
2013-06-05 21:12:00,61.8,54.9,29.88,NW,304,1.0,1.0,78,0.00,,,0.16,0,Wunderground v.1.15,2013-06-06 02:12:00,
2013-06-05 21:15:00,61.8,54.9,29.88,NNW,338,2.0,7.0,78,0.00,,,0.16,0,Wunderground v.1.15,2013-06-06 02:15:00,
2013-06-05 21:16:00,61.8,54.9,29.88,NNW,338,0.0,7.0,78,0.00,,,0.16,0,Wunderground v.1.15,2013-06-06 02:16:00,
2013-06-05 21:19:00,61.9,55.0,29.88,WNW,296,0.0,7.0,78,0.00,,,0.16,0,Wunderground v.1.15,2013-06-06 02:19:00,
2013-06-05 21:21:00,61.9,55.0,29.88,WNW,296,1.0,1.0,78,0.00,,,0.16,0,Wunderground v.1.15,2013-06-06 02:21:00,
2013-06-05 21:22:00,61.9,55.3,29.88,NW,326,2.0,2.0,79,0.00,,,0.16,0,Wunderground v.1.15,2013-06-06 02:22:00,
2013-06-05 21:26:00,61.8,54.9,29.88,NNW,331,2.0,3.0,78,0.00,,,0.16,0,Wunderground v.1.15,2013-06-06 02:26:00,
2013-06-05 21:28:00,61.8,54.9,29.88,NW,318,1.0,3.0,78,0.00,,,0.16,0,Wunderground v.1.15,2013-06-06 02:28:00,
2013-06-05 21:29:00,61.7,54.8,29.88,NW,318,0.0,3.0,78,0.00,,,0.16,0,Wunderground v.1.15,2013-06-06 02:29:00,
2013-06-05 21:31:00,61.6,54.7,29.89,NNE,24,0.0,1.0,78,0.00,,,0.16,0,Wunderground v.1.15,2013-06-06 02:31:00,
2013-06-05 21:33:00,61.6,54.7,29.89,NNE,20,0.0,1.0,78,0.00,,,0.16,0,Wunderground v.1.15,2013-06-06 02:33:00,
2013-06-05 21:34:00,61.6,54.3,29.89,NNE,20,0.0,1.0,77,0.00,,,0.16,0,Wunderground v.1.15,2013-06-06 02:34:00,
2013-06-05 21:37:00,61.4,54.5,29.89,North,5,0.0,1.0,78,0.00,,,0.16,0,Wunderground v.1.15,2013-06-06 02:37:00,
2013-06-05 21:38:00,61.4,54.5,29.89,North,5,1.0,1.0,78,0.00,,,0.16,0,Wunderground v.1.15,2013-06-06 02:38:00,
2013-06-05 21:39:00,61.3,54.4,29.89,North,5,0.0,1.0,78,0.00,,,0.16,0,Wunderground v.1.15,2013-06-06 02:39:00,
2013-06-05 21:40:00,61.3,54.4,29.89,North,5,0.0,0.0,78,0.00,,,0.16,0,Wunderground v.1.15,2013-06-06 02:40:00,
2013-06-05 21:42:00,61.2,54.3,29.89,North,5,0.0,0.0,78,0.00,,,0.16,0,Wunderground v.1.15,2013-06-06 02:42:00,
2013-06-05 21:44:00,61.1,54.9,29.89,North,5,0.0,0.0,80,0.00,,,0.16,0,Wunderground v.1.15,2013-06-06 02:44:00,
2013-06-05 21:46:00,60.9,54.7,29.89,North,5,0.0,0.0,80,0.00,,,0.16,0,Wunderground v.1.15,2013-06-06 02:46:00,
2013-06-05 21:49:00,60.7,55.2,29.89,North,5,0.0,0.0,82,0.00,,,0.16,0,Wunderground v.1.15,2013-06-06 02:49:00,
2013-06-05 21:50:00,60.6,54.7,29.89,North,5,0.0,0.0,81,0.00,,,0.16,0,Wunderground v.1.15,2013-06-06 02:50:00,
2013-06-05 21:51:00,60.5,54.6,29.89,North,5,0.0,0.0,81,0.00,,,0.16,0,Wunderground v.1.15,2013-06-06 02:51:00,
2013-06-05 21:52:00,60.5,55.0,29.89,North,5,0.0,0.0,82,0.00,,,0.16,0,Wunderground v.1.15,2013-06-06 02:52:00,
2013-06-05 21:56:00,60.2,55.0,29.89,North,5,0.0,0.0,83,0.00,,,0.16,0,Wunderground v.1.15,2013-06-06 02:56:00,
2013-06-05 21:57:00,60.1,54.9,29.89,North,5,0.0,0.0,83,0.00,,,0.16,0,Wunderground v.1.15,2013-06-06 02:57:00,
2013-06-05 21:58:00,60.0,54.8,29.89,North,5,0.0,0.0,83,0.00,,,0.16,0,Wunderground v.1.15,2013-06-06 02:58:00,
2013-06-05 22:01:00,59.7,54.9,29.89,North,5,0.0,0.0,84,0.00,,,0.16,0,Wunderground v.1.15,2013-06-06 03:01:00,
2013-06-05 22:02:00,59.6,54.8,29.89,North,5,0.0,0.0,84,0.00,,,0.16,0,Wunderground v.1.15,2013-06-06 03:02:00,
2013-06-05 22:04:00,59.4,54.6,29.89,North,5,0.0,0.0,84,0.00,,,0.16,0,Wunderground v.1.15,2013-06-06 03:04:00,
2013-06-05 22:05:00,59.3,54.5,29.89,North,5,0.0,0.0,84,0.00,,,0.16,0,Wunderground v.1.15,2013-06-06 03:05:00,
2013-06-05 22:07:00,59.1,54.3,29.89,North,5,0.0,0.0,84,0.00,,,0.16,0,Wunderground v.1.15,2013-06-06 03:07:00,
2013-06-05 22:08:00,59.1,54.3,29.89,North,5,0.0,0.0,84,0.00,,,0.16,0,Wunderground v.1.15,2013-06-06 03:08:00,
2013-06-05 22:10:00,58.9,54.1,29.89,North,5,0.0,0.0,84,0.00,,,0.16,0,Wunderground v.1.15,2013-06-06 03:10:00,
2013-06-05 22:13:00,58.8,54.0,29.89,North,5,0.0,0.0,84,0.00,,,0.16,0,Wunderground v.1.15,2013-06-06 03:13:00,
2013-06-05 22:14:00,58.8,54.6,29.89,North,5,0.0,0.0,86,0.00,,,0.16,0,Wunderground v.1.15,2013-06-06 03:14:00,
2013-06-05 22:16:00,58.6,54.4,29.89,North,5,0.0,0.0,86,0.00,,,0.16,0,Wunderground v.1.15,2013-06-06 03:16:00,
2013-06-05 22:18:00,58.3,54.4,29.89,North,5,0.0,0.0,87,0.00,,,0.16,0,Wunderground v.1.15,2013-06-06 03:18:00,
2013-06-05 22:19:00,58.2,54.3,29.89,North,5,0.0,0.0,87,0.00,,,0.16,0,Wunderground v.1.15,2013-06-06 03:19:00,
2013-06-05 22:21:00,57.9,54.4,29.89,North,5,0.0,0.0,88,0.00,,,0.16,0,Wunderground v.1.15,2013-06-06 03:21:00,
2013-06-05 22:23:00,57.8,54.9,29.89,North,5,0.0,0.0,90,0.00,,,0.16,0,Wunderground v.1.15,2013-06-06 03:23:00,
2013-06-05 22:24:00,57.5,54.3,29.89,North,5,0.0,0.0,89,0.00,,,0.16,0,Wunderground v.1.15,2013-06-06 03:24:00,
2013-06-05 22:25:00,57.4,54.2,29.90,North,5,0.0,0.0,89,0.00,,,0.16,0,Wunderground v.1.15,2013-06-06 03:25:00,
2013-06-05 22:29:00,57.1,54.5,29.90,North,5,0.0,0.0,91,0.00,,,0.16,0,Wunderground v.1.15,2013-06-06 03:29:00,
2013-06-05 22:30:00,57.1,54.8,29.90,North,5,0.0,0.0,92,0.00,,,0.16,0,Wunderground v.1.15,2013-06-06 03:30:00,
2013-06-05 22:31:00,57.2,54.9,29.90,North,5,0.0,0.0,92,0.00,,,0.16,0,Wunderground v.1.15,2013-06-06 03:31:00,
2013-06-05 22:34:00,56.9,54.3,29.90,North,5,0.0,0.0,91,0.00,,,0.16,0,Wunderground v.1.15,2013-06-06 03:34:00,
2013-06-05 22:35:00,56.8,54.5,29.90,North,5,0.0,0.0,92,0.00,,,0.16,0,Wunderground v.1.15,2013-06-06 03:35:00,
2013-06-05 22:36:00,56.7,54.4,29.90,North,5,0.0,0.0,92,0.00,,,0.16,0,Wunderground v.1.15,2013-06-06 03:36:00,
2013-06-05 22:38:00,56.6,54.3,29.90,North,5,0.0,0.0,92,0.00,,,0.16,0,Wunderground v.1.15,2013-06-06 03:38:00,
2013-06-05 22:41:00,56.7,54.7,29.90,North,5,0.0,0.0,93,0.00,,,0.16,0,Wunderground v.1.15,2013-06-06 03:41:00,
2013-06-05 22:43:00,56.7,54.7,29.90,North,5,0.0,0.0,93,0.00,,,0.16,0,Wunderground v.1.15,2013-06-06 03:43:00,
2013-06-05 22:44:00,56.6,54.3,29.90,North,5,0.0,0.0,92,0.00,,,0.16,0,Wunderground v.1.15,2013-06-06 03:44:00,
2013-06-05 22:47:00,56.3,54.0,29.90,North,5,0.0,0.0,92,0.00,,,0.16,0,Wunderground v.1.15,2013-06-06 03:47:00,
2013-06-05 22:48:00,56.3,54.0,29.90,North,5,0.0,0.0,92,0.00,,,0.16,0,Wunderground v.1.15,2013-06-06 03:48:00,
2013-06-05 22:49:00,56.3,54.0,29.90,North,5,0.0,0.0,92,0.00,,,0.16,0,Wunderground v.1.15,2013-06-06 03:49:00,
2013-06-05 22:51:00,56.3,54.0,29.90,North,5,0.0,0.0,92,0.00,,,0.16,0,Wunderground v.1.15,2013-06-06 03:51:00,
2013-06-05 22:52:00,56.5,54.5,29.90,North,5,0.0,0.0,93,0.00,,,0.16,0,Wunderground v.1.15,2013-06-06 03:52:00,
2013-06-05 22:53:00,56.6,54.6,29.90,North,5,0.0,0.0,93,0.00,,,0.16,0,Wunderground v.1.15,2013-06-06 03:53:00,
2013-06-05 22:54:00,56.6,54.6,29.90,North,5,0.0,0.0,93,0.00,,,0.16,0,Wunderground v.1.15,2013-06-06 03:54:00,
2013-06-05 22:57:00,56.4,54.1,29.90,North,5,0.0,0.0,92,0.00,,,0.16,0,Wunderground v.1.15,2013-06-06 03:57:00,
2013-06-05 22:59:00,56.3,54.0,29.90,North,5,0.0,0.0,92,0.00,,,0.16,0,Wunderground v.1.15,2013-06-06 03:59:00,
2013-06-05 23:00:00,56.3,54.0,29.90,North,5,0.0,0.0,92,0.00,,,0.16,0,Wunderground v.1.15,2013-06-06 04:00:00,
2013-06-05 23:01:00,56.3,54.0,29.90,North,5,0.0,0.0,92,0.00,,,0.16,0,Wunderground v.1.15,2013-06-06 04:01:00,
2013-06-05 23:02:00,56.3,54.0,29.90,North,5,0.0,0.0,92,0.00,,,0.16,0,Wunderground v.1.15,2013-06-06 04:02:00,
2013-06-05 23:04:00,56.3,54.0,29.90,North,5,0.0,0.0,92,0.00,,,0.16,0,Wunderground v.1.15,2013-06-06 04:04:00,
2013-06-05 23:07:00,56.2,53.6,29.90,North,5,0.0,0.0,91,0.00,,,0.16,0,Wunderground v.1.15,2013-06-06 04:07:00,
2013-06-05 23:08:00,56.1,53.5,29.90,North,5,0.0,0.0,91,0.00,,,0.16,0,Wunderground v.1.15,2013-06-06 04:08:00,
2013-06-05 23:09:00,56.0,53.7,29.90,North,5,0.0,0.0,92,0.00,,,0.16,0,Wunderground v.1.15,2013-06-06 04:09:00,
2013-06-05 23:10:00,56.0,53.7,29.90,North,5,0.0,0.0,92,0.00,,,0.16,0,Wunderground v.1.15,2013-06-06 04:10:00,
2013-06-05 23:12:00,56.0,53.7,29.90,North,5,0.0,0.0,92,0.00,,,0.16,0,Wunderground v.1.15,2013-06-06 04:12:00,
2013-06-05 23:13:00,56.0,53.7,29.90,North,5,0.0,0.0,92,0.00,,,0.16,0,Wunderground v.1.15,2013-06-06 04:13:00,
2013-06-05 23:14:00,56.0,53.7,29.90,North,5,0.0,0.0,92,0.00,,,0.16,0,Wunderground v.1.15,2013-06-06 04:14:00,
2013-06-05 23:15:00,55.8,53.5,29.90,North,5,0.0,0.0,92,0.00,,,0.16,0,Wunderground v.1.15,2013-06-06 04:15:00,
2013-06-05 23:18:00,55.7,53.4,29.90,North,5,0.0,0.0,92,0.00,,,0.16,0,Wunderground v.1.15,2013-06-06 04:18:00,
2013-06-05 23:20:00,55.6,53.3,29.90,North,5,0.0,0.0,92,0.00,,,0.16,0,Wunderground v.1.15,2013-06-06 04:20:00,
2013-06-05 23:21:00,55.6,53.6,29.90,North,5,0.0,0.0,93,0.00,,,0.16,0,Wunderground v.1.15,2013-06-06 04:21:00,
2013-06-05 23:25:00,55.4,53.1,29.90,North,5,0.0,0.0,92,0.00,,,0.16,0,Wunderground v.1.15,2013-06-06 04:25:00,
2013-06-05 23:26:00,55.3,53.3,29.90,North,5,0.0,0.0,93,0.00,,,0.16,0,Wunderground v.1.15,2013-06-06 04:26:00,
2013-06-05 23:27:00,55.4,53.4,29.90,North,5,0.0,0.0,93,0.00,,,0.16,0,Wunderground v.1.15,2013-06-06 04:27:00,
2013-06-05 23:28:00,55.4,53.4,29.90,North,5,0.0,0.0,93,0.00,,,0.16,0,Wunderground v.1.15,2013-06-06 04:28:00,
2013-06-05 23:31:00,55.4,53.1,29.90,North,5,0.0,0.0,92,0.00,,,0.16,0,Wunderground v.1.15,2013-06-06 04:31:00,
2013-06-05 23:32:00,55.4,53.1,29.90,North,5,0.0,0.0,92,0.00,,,0.16,0,Wunderground v.1.15,2013-06-06 04:32:00,
2013-06-05 23:33:00,55.3,53.0,29.90,North,5,0.0,0.0,92,0.00,,,0.16,0,Wunderground v.1.15,2013-06-06 04:33:00,
2013-06-05 23:34:00,55.3,53.0,29.90,North,5,0.0,0.0,92,0.00,,,0.16,0,Wunderground v.1.15,2013-06-06 04:34:00,
2013-06-05 23:37:00,55.4,53.4,29.90,North,5,0.0,0.0,93,0.00,,,0.16,0,Wunderground v.1.15,2013-06-06 04:37:00,
2013-06-05 23:38:00,55.4,53.4,29.90,North,5,0.0,0.0,93,0.00,,,0.16,0,Wunderground v.1.15,2013-06-06 04:38:00,
2013-06-05 23:39:00,55.6,53.6,29.90,North,5,0.0,0.0,93,0.00,,,0.16,0,Wunderground v.1.15,2013-06-06 04:39:00,
2013-06-05 23:44:00,55.9,53.6,29.90,North,5,0.0,1.0,92,0.00,,,0.16,0,Wunderground v.1.15,2013-06-06 04:44:00,
2013-06-05 23:46:00,56.1,53.8,29.90,North,5,0.0,1.0,92,0.00,,,0.16,0,Wunderground v.1.15,2013-06-06 04:46:00,
2013-06-05 23:48:00,56.2,53.6,29.90,North,5,0.0,1.0,91,0.00,,,0.16,0,Wunderground v.1.15,2013-06-06 04:48:00,
2013-06-05 23:49:00,56.3,53.4,29.90,North,5,0.0,1.0,90,0.00,,,0.16,0,Wunderground v.1.15,2013-06-06 04:49:00,
2013-06-05 23:51:00,56.3,53.4,29.90,North,5,0.0,0.0,90,0.00,,,0.16,0,Wunderground v.1.15,2013-06-06 04:51:00,
2013-06-05 23:53:00,56.4,53.5,29.90,North,5,0.0,0.0,90,0.00,,,0.16,0,Wunderground v.1.15,2013-06-06 04:53:00,
2013-06-05 23:55:00,56.3,53.4,29.90,North,5,0.0,0.0,90,0.00,,,0.16,0,Wunderground v.1.15,2013-06-06 04:55:00,
2013-06-05 23:57:00,56.2,53.3,29.90,North,5,0.0,0.0,90,0.00,,,0.16,0,Wunderground v.1.15,2013-06-06 04:57:00,
2013-06-05 23:58:00,56.2,53.3,29.90,North,5,0.0,0.0,90,0.00,,,0.00,0,Wunderground v.1.15,2013-06-06 04:58:00,